KJ6MC Weather Reports


time (UTC)temp
C
wind
direction
speed
KPH
gust
KPH
rain 1hr
cm
rain 24hr
cm
rain mn
cm
humidity
%
barometer
mb
20260904030413 19 233 0.0 4.8 0.00 0.00 0.00 79 1010.5
20260904030312 19 233 1.6 6.4 0.00 0.00 0.00 79 1010.4
20260904030216 19 232 1.6 14.5 0.00 0.00 0.00 79 1010.4
20260904030209 19 233 1.6 14.5 0.00 0.00 0.00 79 1010.5
20260904030107 19 233 1.6 14.5 0.00 0.00 0.00 79 1010.4
20260904030059 19 232 1.6 14.5 0.00 0.00 0.00 79 1010.4
20260904025907 19 232 1.6 14.5 0.00 0.00 0.00 79 1010.4
20260904025810 19 232 1.6 14.5 0.00 0.00 0.00 79 1010.4
20260904025705 19 259 1.6 14.5 0.00 0.00 0.00 79 1010.4
20260904025701 19 233 1.6 14.5 0.00 0.00 0.00 79 1010.4
20260904025600 19 232 1.6 14.5 0.00 0.00 0.00 79 1010.4
20260904025550 19 179 1.6 14.5 0.00 0.00 0.00 79 1010.4
20260904025401 19 219 1.6 14.5 0.00 0.00 0.00 79 1010.4
20260904025300 19 280 1.6 14.5 0.00 0.00 0.00 79 1010.4
20260904025158 19 235 1.6 17.7 0.00 0.00 0.00 79 1010.4
20260904025055 19 235 3.2 17.7 0.00 0.00 0.00 79 1010.4
20260904024954 19 226 3.2 17.7 0.00 0.00 0.00 79 1010.4
20260904024936 19 212 3.2 17.7 0.00 0.00 0.00 79 1010.4
20260904024855 19 212 3.2 17.7 0.00 0.00 0.00 79 1010.4
20260904024754 19 233 3.2 17.7 0.00 0.00 0.00 79 1010.4
20260904024655 19 245 3.2 17.7 0.00 0.00 0.00 79 1010.5
20260904024553 19 253 3.2 17.7 0.00 0.00 0.00 79 1010.5
20260904024453 19 290 3.2 17.7 0.00 0.00 0.00 79 1010.5
20260904024430 19 311 3.2 19.3 0.00 0.00 0.00 79 1010.5
20260904024352 20 232 3.2 19.3 0.00 0.00 0.00 79 1010.5
20260904024248 20 240 3.2 19.3 0.00 0.00 0.00 80 1010.5
20260904024144 20 250 3.2 19.3 0.00 0.00 0.00 80 1010.4
20260904024043 20 229 3.2 19.3 0.00 0.00 0.00 80 1010.5
20260904023943 20 224 3.2 19.3 0.00 0.00 0.00 80 1010.5
20260904023924 20 284 3.2 19.3 0.00 0.00 0.00 80 1010.5
20260904023842 20 281 3.2 19.3 0.00 0.00 0.00 80 1010.6
20260904023742 20 248 3.2 19.3 0.00 0.00 0.00 80 1010.5
20260904023647 20 234 3.2 11.3 0.00 0.00 0.00 79 1010.6
20260904023634 20 258 3.2 19.3 0.00 0.00 0.00 80 1010.5
20260904023541 20 257 3.2 19.3 0.00 0.00 0.00 79 1010.5
20260904023532 20 193 3.2 11.3 0.00 0.00 0.00 79 1010.6
20260904023333 20 243 3.2 11.3 0.00 0.00 0.00 79 1010.6
20260904023232 20 276 3.2 16.1 0.00 0.00 0.00 79 1010.6
20260904023147 20 214 4.8 16.1 0.00 0.00 0.00 79 1010.6
20260904023133 20 276 3.2 16.1 0.00 0.00 0.00 79 1010.6
20260904023041 20 273 3.2 16.1 0.00 0.00 0.00 79 1010.6
20260904023033 20 219 4.8 16.1 0.00 0.00 0.00 79 1010.6
20260904022829 20 228 3.2 16.1 0.00 0.00 0.00 79 1010.6
20260904022727 20 335 3.2 16.1 0.00 0.00 0.00 79 1010.6
20260904022626 20 280 3.2 16.1 0.00 0.00 0.00 79 1010.6
20260904022521 20 239 3.2 16.1 0.00 0.00 0.00 79 1010.5
20260904022421 20 298 4.8 19.3 0.00 0.00 0.00 79 1010.6
20260904022321 20 231 4.8 19.3 0.00 0.00 0.00 79 1010.5
20260904022220 20 223 3.2 19.3 0.00 0.00 0.00 79 1010.5
20260904022115 20 302 3.2 19.3 0.00 0.00 0.00 78 1010.5
20260904022015 20 253 3.2 19.3 0.00 0.00 0.00 78 1010.5
20260904021923 20 226 3.2 19.3 0.00 0.00 0.00 78 1010.5
20260904021915 20 257 3.2 19.3 0.00 0.00 0.00 78 1010.5
20260904021815 20 284 3.2 19.3 0.00 0.00 0.00 78 1010.6
20260904021714 20 219 3.2 19.3 0.00 0.00 0.00 78 1010.6
20260904021611 20 224 3.2 19.3 0.00 0.00 0.00 78 1010.5
20260904021509 20 255 3.2 19.3 0.00 0.00 0.00 78 1010.6
20260904021422 20 302 3.2 12.9 0.00 0.00 0.00 77 1010.6
20260904021410 20 262 3.2 12.9 0.00 0.00 0.00 77 1010.5
20260904021310 20 256 3.2 12.9 0.00 0.00 0.00 77 1010.5
20260904021209 20 159 3.2 12.9 0.00 0.00 0.00 77 1010.6
20260904021103 20 250 1.6 12.9 0.00 0.00 0.00 77 1010.6
20260904021004 20 246 1.6 11.3 0.00 0.00 0.00 77 1010.6
20260904020926 20 274 1.6 8.0 0.00 0.00 0.00 77 1010.6
20260904020903 20 225 1.6 8.0 0.00 0.00 0.00 77 1010.6
20260904020803 20 170 1.6 8.0 0.00 0.00 0.00 77 1010.6
20260904020703 20 318 1.6 8.0 0.00 0.00 0.00 77 1010.6
20260904020559 20 282 1.6 8.0 0.00 0.00 0.00 76 1010.6
20260904020457 20 285 1.6 12.9 0.00 0.00 0.00 76 1010.6
20260904020424 20 284 1.6 12.9 0.00 0.00 0.00 76 1010.6
20260904020357 20 284 1.6 12.9 0.00 0.00 0.00 76 1010.7
20260904020257 20 270 1.6 12.9 0.00 0.00 0.00 76 1010.7
20260904020156 20 277 1.6 12.9 0.00 0.00 0.00 76 1010.7
20260904020055 20 259 3.2 12.9 0.00 0.00 0.00 76 1010.7
20260904015954 20 258 3.2 12.9 0.00 0.00 0.00 76 1010.7
20260904015919 20 259 3.2 12.9 0.00 0.00 0.00 75 1010.7
20260904015852 20 259 3.2 12.9 0.00 0.00 0.00 75 1010.7
20260904015753 20 273 3.2 12.9 0.00 0.00 0.00 75 1010.7
20260904015650 20 228 3.2 12.9 0.00 0.00 0.00 75 1010.7
20260904015549 20 284 3.2 12.9 0.00 0.00 0.00 75 1010.8
20260904015446 20 233 3.2 11.3 0.00 0.00 0.00 75 1010.8
20260904015419 20 226 3.2 11.3 0.00 0.00 0.00 75 1010.8
20260904015413 20 252 3.2 16.1 0.00 0.00 0.00 74 1010.8
20260904015346 20 232 3.2 11.3 0.00 0.00 0.00 75 1010.8
20260904015256 20 271 3.2 11.3 0.00 0.00 0.00 75 1010.8
20260904015143 20 282 3.2 11.3 0.00 0.00 0.00 74 1010.8
20260904015037 20 312 3.2 11.3 0.00 0.00 0.00 74 1010.8
20260904015025 20 225 3.2 16.1 0.00 0.00 0.00 74 1010.8
20260904014837 20 246 3.2 16.1 0.00 0.00 0.00 74 1010.8
20260904014737 20 270 3.2 16.1 0.00 0.00 0.00 74 1010.7
20260904014634 21 245 3.2 16.1 0.00 0.00 0.00 74 1010.7
20260904014536 21 305 3.2 16.1 0.00 0.00 0.00 74 1010.7
20260904014417 21 253 3.2 16.1 0.00 0.00 0.00 74 1010.7
20260904014331 21 233 3.2 16.1 0.00 0.00 0.00 74 1010.7
20260904014231 21 243 3.2 16.1 0.00 0.00 0.00 74 1010.7
20260904014129 21 205 1.6 16.1 0.00 0.00 0.00 74 1010.7
20260904014023 21 296 1.6 16.1 0.00 0.00 0.00 74 1010.7
20260904013924 21 242 1.6 12.9 0.00 0.00 0.00 74 1010.7
20260904013916 21 239 1.6 12.9 0.00 0.00 0.00 74 1010.7
20260904013823 21 239 1.6 12.9 0.00 0.00 0.00 74 1010.7
20260904013722 21 242 1.6 12.9 0.00 0.00 0.00 74 1010.6
20260904013625 21 217 1.6 12.9 0.00 0.00 0.00 74 1010.7
20260904013519 21 232 1.6 12.9 0.00 0.00 0.00 74 1010.8
20260904013418 21 248 1.6 12.9 0.00 0.00 0.00 74 1010.7
20260904013317 21 290 1.6 11.3 0.00 0.00 0.00 74 1010.6
20260904013218 21 311 1.6 11.3 0.00 0.00 0.00 74 1010.7
20260904013115 21 335 1.6 11.3 0.00 0.00 0.00 74 1010.7
20260904013008 21 312 1.6 11.3 0.00 0.00 0.00 74 1010.7
20260904012916 21 311 1.6 11.3 0.00 0.00 0.00 74 1010.7
20260904012909 21 312 3.2 11.3 0.00 0.00 0.00 74 1010.7
20260904012807 21 311 3.2 12.9 0.00 0.00 0.00 74 1010.8
20260904012708 21 304 3.2 12.9 0.00 0.00 0.00 74 1010.8
20260904012607 21 266 3.2 12.9 0.00 0.00 0.00 74 1010.8
20260904012503 21 235 3.2 12.9 0.00 0.00 0.00 74 1010.8
20260904012417 21 243 3.2 12.9 0.00 0.00 0.00 74 1010.8
20260904012403 21 231 3.2 12.9 0.00 0.00 0.00 74 1010.8
20260904012306 21 239 3.2 12.9 0.00 0.00 0.00 74 1010.8
20260904012204 21 273 3.2 12.9 0.00 0.00 0.00 74 1010.8
20260904012100 21 273 3.2 12.9 0.00 0.00 0.00 73 1010.9
20260904011927 21 273 3.2 12.9 0.00 0.00 0.00 73 1010.9
20260904011853 21 239 3.2 12.9 0.00 0.00 0.00 73 1010.9
20260904011752 21 245 3.2 12.9 0.00 0.00 0.00 73 1010.8
20260904011653 21 235 3.2 12.9 0.00 0.00 0.00 73 1010.9
20260904011552 21 269 3.2 12.9 0.00 0.00 0.00 73 1010.9
20260904011450 21 250 1.6 9.7 0.00 0.00 0.00 73 1010.9
20260904011422 21 240 1.6 9.7 0.00 0.00 0.00 73 1010.9
20260904011349 21 257 1.6 9.7 0.00 0.00 0.00 73 1010.9
20260904011249 21 245 1.6 9.7 0.00 0.00 0.00 73 1010.9
20260904011147 21 301 1.6 9.7 0.00 0.00 0.00 73 1010.9
20260904011045 21 253 3.2 16.1 0.00 0.00 0.00 73 1010.9
20260904010941 21 240 3.2 16.1 0.00 0.00 0.00 73 1010.9
20260904010909 21 321 3.2 16.1 0.00 0.00 0.00 73 1010.9
20260904010838 21 350 3.2 16.1 0.00 0.00 0.00 72 1010.9
20260904010739 21 311 3.2 16.1 0.00 0.00 0.00 72 1010.9
20260904010638 21 233 3.2 16.1 0.00 0.00 0.00 72 1010.9
20260904010536 21 240 3.2 16.1 0.00 0.00 0.00 72 1010.9
20260904010410 21 240 3.2 16.1 0.00 0.00 0.00 72 1010.9
20260904010331 21 241 3.2 16.1 0.00 0.00 0.00 72 1010.9
20260904010232 21 264 3.2 16.1 0.00 0.00 0.00 72 1010.9
20260904010132 21 245 3.2 16.1 0.00 0.00 0.00 72 1011.0
20260904010030 21 256 3.2 8.0 0.00 0.00 0.00 71 1011.0
20260904005929 21 339 3.2 8.0 0.00 0.00 0.00 72 1011.0
20260904005911 21 319 3.2 8.0 0.00 0.00 0.00 72 1011.0
20260904005827 21 294 3.2 8.0 0.00 0.00 0.00 72 1011.0
20260904005727 21 256 3.2 8.0 0.00 0.00 0.00 71 1011.0
20260904005626 21 260 1.6 8.0 0.00 0.00 0.00 71 1011.0
20260904005523 21 238 1.6 8.0 0.00 0.00 0.00 71 1011.0
20260904005410 21 301 3.2 8.0 0.00 0.00 0.00 71 1011.0
20260904005318 21 294 3.2 11.3 0.00 0.00 0.00 71 1011.0
20260904005217 21 310 3.2 11.3 0.00 0.00 0.00 71 1011.0
20260904005132 21 203 3.2 11.3 0.00 0.00 0.00 70 1011.0
20260904005117 21 184 3.2 11.3 0.00 0.00 0.00 71 1011.0
20260904005025 21 229 3.2 11.3 0.00 0.00 0.00 70 1011.0
20260904005015 21 203 3.2 11.3 0.00 0.00 0.00 70 1011.0
20260904004808 21 207 3.2 11.3 0.00 0.00 0.00 70 1011.0
20260904004710 21 277 3.2 11.3 0.00 0.00 0.00 70 1010.9
20260904004607 22 253 1.6 11.3 0.00 0.00 0.00 70 1011.0
20260904004507 22 180 1.6 11.3 0.00 0.00 0.00 70 1011.0
20260904004409 22 276 1.6 11.3 0.00 0.00 0.00 70 1011.0
20260904004403 22 275 1.6 11.3 0.00 0.00 0.00 70 1011.0
20260904004301 22 277 1.6 9.7 0.00 0.00 0.00 70 1011.0
20260904004201 22 115 1.6 6.4 0.00 0.00 0.00 70 1011.0
20260904004132 22 310 1.6 6.4 0.00 0.00 0.00 70 1011.0
20260904004101 22 321 1.6 6.4 0.00 0.00 0.00 70 1011.0
20260904004020 22 177 1.6 6.4 0.00 0.00 0.00 70 1010.9
20260904003855 22 333 1.6 6.4 0.00 0.00 0.00 70 1011.0
20260904003758 22 233 1.6 6.4 0.00 0.00 0.00 70 1011.0
20260904003656 22 348 1.6 8.0 0.00 0.00 0.00 70 1011.0
20260904003555 22 260 1.6 8.0 0.00 0.00 0.00 70 1011.0
20260904003452 22 274 3.2 8.0 0.00 0.00 0.00 70 1011.0
20260904003412 22 273 3.2 9.7 0.00 0.00 0.00 70 1010.9
20260904003350 22 148 3.2 9.7 0.00 0.00 0.00 69 1010.9
20260904003247 22 328 3.2 9.7 0.00 0.00 0.00 69 1011.0
20260904003147 22 217 3.2 9.7 0.00 0.00 0.00 69 1010.9
20260904003047 22 150 3.2 9.7 0.00 0.00 0.00 69 1010.9
20260904002944 22 222 3.2 9.7 0.00 0.00 0.00 69 1011.0
20260904002909 22 207 3.2 9.7 0.00 0.00 0.00 69 1010.9
20260904002841 22 231 3.2 9.7 0.00 0.00 0.00 69 1010.9
20260904002740 22 253 1.6 9.7 0.00 0.00 0.00 69 1010.9
20260904002641 22 256 1.6 9.7 0.00 0.00 0.00 69 1010.8
20260904002624 22 274 1.6 9.7 0.00 0.00 0.00 68 1010.8
20260904002540 22 270 1.6 9.7 0.00 0.00 0.00 69 1010.8
20260904002520 22 224 1.6 9.7 0.00 0.00 0.00 68 1010.8
20260904002335 22 273 1.6 9.7 0.00 0.00 0.00 69 1010.8
20260904002236 22 136 1.6 9.7 0.00 0.00 0.00 69 1010.9
20260904002137 22 238 1.6 9.7 0.00 0.00 0.00 69 1010.9
20260904002035 22 305 1.6 9.7 0.00 0.00 0.00 69 1010.8
20260904001933 22 305 1.6 11.3 0.00 0.00 0.00 69 1010.8
20260904001909 22 304 1.6 11.3 0.00 0.00 0.00 69 1010.8
20260904001833 22 305 1.6 11.3 0.00 0.00 0.00 69 1010.8
20260904001733 22 280 1.6 11.3 0.00 0.00 0.00 68 1010.8
20260904001634 22 242 1.6 11.3 0.00 0.00 0.00 68 1010.8
20260904001531 22 288 1.6 11.3 0.00 0.00 0.00 68 1010.8
20260904001428 22 212 1.6 11.3 0.00 0.00 0.00 68 1010.8
20260904001407 22 290 1.6 11.3 0.00 0.00 0.00 68 1010.9
20260904001329 22 283 1.6 11.3 0.00 0.00 0.00 68 1010.9
20260904001228 22 283 1.6 11.3 0.00 0.00 0.00 68 1010.8
20260904001129 22 257 1.6 11.3 0.00 0.00 0.00 68 1010.9
20260904001028 22 300 1.6 12.9 0.00 0.00 0.00 68 1010.9
20260904000930 22 236 1.6 12.9 0.00 0.00 0.00 68 1010.9
20260904000919 22 197 3.2 14.5 0.00 0.00 0.00 68 1010.9
20260904000829 22 250 3.2 14.5 0.00 0.00 0.00 68 1010.9
20260904000727 22 250 3.2 14.5 0.00 0.00 0.00 67 1010.9
20260904000627 22 250 3.2 14.5 0.00 0.00 0.00 67 1010.9
20260904000526 22 250 3.2 14.5 0.00 0.00 0.00 67 1010.9
20260904000426 22 250 3.2 14.5 0.00 0.00 0.00 67 1010.9
20260904000410 22 233 3.2 14.5 0.00 0.00 0.00 67 1011.0
20260904000327 22 238 3.2 14.5 0.00 0.00 0.00 66 1011.0
20260904000226 22 283 3.2 16.1 0.00 0.00 0.00 66 1011.0
20260904000126 23 297 3.2 16.1 0.00 0.00 0.00 66 1011.0
20260904000021 23 238 3.2 16.1 0.00 0.00 0.00 66 1010.9
20260903235920 23 274 3.2 16.1 0.00 0.00 0.00 66 1010.9
20260903235902 23 26 3.2 16.1 0.00 0.00 0.00 66 1010.9
20260903235821 23 325 3.2 16.1 0.00 0.00 0.00 67 1010.9
20260903235720 23 288 3.2 16.1 0.00 0.00 0.00 66 1010.9
20260903235617 23 325 3.2 16.1 0.00 0.00 0.00 67 1010.9
20260903235515 23 201 3.2 16.1 0.00 0.00 0.00 66 1010.9
20260903235415 23 239 3.2 16.1 0.00 0.00 0.00 66 1010.9
20260903235356 23 222 3.2 16.1 0.00 0.00 0.00 66 1010.9
20260903235315 23 326 3.2 16.1 0.00 0.00 0.00 66 1010.9
20260903235214 23 219 3.2 16.1 0.00 0.00 0.00 66 1011.0
20260903235110 23 252 3.2 16.1 0.00 0.00 0.00 66 1011.0
20260903235008 23 273 3.2 19.3 0.00 0.00 0.00 66 1010.9
20260903234909 23 232 3.2 19.3 0.00 0.00 0.00 66 1010.9
20260903234850 23 281 3.2 19.3 0.00 0.00 0.00 66 1010.9
20260903234809 23 136 3.2 19.3 0.00 0.00 0.00 66 1010.9
20260903234709 23 161 3.2 19.3 0.00 0.00 0.00 66 1011.0
20260903234602 23 317 3.2 19.3 0.00 0.00 0.00 66 1010.9
20260903234504 23 6 3.2 19.3 0.00 0.00 0.00 66 1010.9
20260903234403 23 293 3.2 19.3 0.00 0.00 0.00 66 1010.9
20260903234344 23 327 3.2 19.3 0.00 0.00 0.00 66 1010.9
20260903234302 23 218 3.2 19.3 0.00 0.00 0.00 66 1011.0
20260903234201 23 148 3.2 19.3 0.00 0.00 0.00 66 1011.0
20260903234059 23 214 3.2 19.3 0.00 0.00 0.00 66 1011.0
20260903233958 23 314 3.2 12.9 0.00 0.00 0.00 66 1011.0
20260903233858 23 8 3.2 9.7 0.00 0.00 0.00 66 1011.0
20260903233838 23 250 3.2 9.7 0.00 0.00 0.00 66 1011.0
20260903233759 23 266 3.2 11.3 0.00 0.00 0.00 66 1011.0
20260903233655 23 291 3.2 14.5 0.00 0.00 0.00 66 1011.0
20260903233602 23 259 4.8 16.1 0.00 0.00 0.00 65 1011.0
20260903233551 23 297 3.2 14.5 0.00 0.00 0.00 66 1011.0
20260903233451 23 248 4.8 14.5 0.00 0.00 0.00 66 1011.0
20260903233441 23 318 4.8 16.1 0.00 0.00 0.00 65 1011.0
20260903233251 23 233 4.8 16.1 0.00 0.00 0.00 65 1011.0
20260903233150 23 256 4.8 16.1 0.00 0.00 0.00 66 1011.0
20260903233053 23 200 4.8 16.1 0.00 0.00 0.00 65 1011.0
20260903233047 23 253 4.8 16.1 0.00 0.00 0.00 66 1011.0
20260903232946 23 273 4.8 16.1 0.00 0.00 0.00 65 1011.0
20260903232935 23 256 4.8 16.1 0.00 0.00 0.00 65 1011.0
20260903232745 23 288 4.8 16.1 0.00 0.00 0.00 65 1011.0
20260903232645 23 280 4.8 16.1 0.00 0.00 0.00 65 1011.0
20260903232544 23 277 3.2 17.7 0.00 0.00 0.00 65 1011.0
20260903232540 23 274 4.8 16.1 0.00 0.00 0.00 65 1011.0
20260903232438 23 281 3.2 17.7 0.00 0.00 0.00 65 1011.0
20260903232429 23 277 3.2 17.7 0.00 0.00 0.00 65 1011.0
20260903232239 23 231 4.8 17.7 0.00 0.00 0.00 65 1011.0
20260903232138 23 305 4.8 17.7 0.00 0.00 0.00 65 1011.1
20260903232035 23 287 4.8 17.7 0.00 0.00 0.00 65 1011.0
20260903231933 23 310 4.8 17.7 0.00 0.00 0.00 65 1011.0
20260903231832 23 321 4.8 17.7 0.00 0.00 0.00 64 1011.0
20260903231817 23 267 4.8 17.7 0.00 0.00 0.00 64 1011.0
20260903231733 23 308 4.8 17.7 0.00 0.00 0.00 64 1011.0
20260903231632 23 253 4.8 17.7 0.00 0.00 0.00 64 1011.1
20260903231530 23 236 4.8 17.7 0.00 0.00 0.00 64 1011.0
20260903231430 23 266 4.8 17.7 0.00 0.00 0.00 63 1011.0
20260903231331 23 291 4.8 17.7 0.00 0.00 0.00 63 1011.0
20260903231308 23 226 4.8 17.7 0.00 0.00 0.00 63 1011.1
20260903231229 24 248 4.8 17.7 0.00 0.00 0.00 63 1011.1
20260903231126 24 303 4.8 16.1 0.00 0.00 0.00 63 1011.1
20260903231022 24 290 4.8 16.1 0.00 0.00 0.00 63 1011.1
20260903230920 24 232 3.2 14.5 0.00 0.00 0.00 62 1011.1
20260903230821 24 277 4.8 14.5 0.00 0.00 0.00 62 1011.1
20260903230802 24 263 4.8 14.5 0.00 0.00 0.00 62 1011.1
20260903230721 24 256 4.8 14.5 0.00 0.00 0.00 63 1011.1
20260903230625 24 278 4.8 14.5 0.00 0.00 0.00 62 1011.1
20260903230516 24 253 3.2 14.5 0.00 0.00 0.00 62 1011.1
20260903230414 24 250 3.2 14.5 0.00 0.00 0.00 62 1011.1
20260903230315 24 278 4.8 14.5 0.00 0.00 0.00 61 1011.2
20260903230256 24 236 4.8 14.5 0.00 0.00 0.00 61 1011.2
20260903230215 24 283 4.8 14.5 0.00 0.00 0.00 61 1011.2
20260903230114 24 311 4.8 14.5 0.00 0.00 0.00 61 1011.2
20260903230011 25 269 3.2 14.5 0.00 0.00 0.00 62 1011.2
20260903225909 24 248 3.2 14.5 0.00 0.00 0.00 61 1011.2
20260903225809 24 250 4.8 14.5 0.00 0.00 0.00 61 1011.2
20260903225752 24 232 4.8 14.5 0.00 0.00 0.00 61 1011.2
20260903225708 24 208 4.8 19.3 0.00 0.00 0.00 62 1011.2
20260903225609 24 269 4.8 25.7 0.00 0.00 0.00 62 1011.2
20260903225508 24 243 4.8 25.7 0.00 0.00 0.00 62 1011.2
20260903225408 24 291 4.8 25.7 0.00 0.00 0.00 62 1011.2
20260903225306 24 271 4.8 25.7 0.00 0.00 0.00 62 1011.2
20260903225255 24 280 4.8 25.7 0.00 0.00 0.00 62 1011.2
20260903225203 24 255 4.8 25.7 0.00 0.00 0.00 62 1011.2
20260903225103 24 281 4.8 25.7 0.00 0.00 0.00 62 1011.2
20260903225002 24 266 4.8 25.7 0.00 0.00 0.00 62 1011.2
20260903224902 24 248 6.4 25.7 0.00 0.00 0.00 61 1011.2
20260903224806 24 235 6.4 25.7 0.00 0.00 0.00 60 1011.3
20260903224757 24 232 6.4 25.7 0.00 0.00 0.00 60 1011.3
20260903224702 24 229 4.8 25.7 0.00 0.00 0.00 61 1011.2
20260903224603 24 260 4.8 19.3 0.00 0.00 0.00 61 1011.3
20260903224503 24 250 4.8 19.3 0.00 0.00 0.00 61 1011.3
20260903224401 24 243 4.8 19.3 0.00 0.00 0.00 62 1011.3
20260903224301 24 240 6.4 19.3 0.00 0.00 0.00 62 1011.2
20260903224239 24 255 6.4 19.3 0.00 0.00 0.00 62 1011.2
20260903224201 24 276 6.4 19.3 0.00 0.00 0.00 62 1011.3
20260903224058 24 235 4.8 19.3 0.00 0.00 0.00 62 1011.3
20260903223959 24 256 4.8 19.3 0.00 0.00 0.00 62 1011.3
20260903223857 24 252 4.8 19.3 0.00 0.00 0.00 62 1011.2
20260903223756 24 266 4.8 17.7 0.00 0.00 0.00 63 1011.3
20260903223743 24 267 4.8 17.7 0.00 0.00 0.00 63 1011.3
20260903223657 24 207 4.8 17.7 0.00 0.00 0.00 63 1011.3
20260903223556 23 242 4.8 17.7 0.00 0.00 0.00 63 1011.4
20260903223456 23 211 4.8 17.7 0.00 0.00 0.00 63 1011.4
20260903223356 23 284 4.8 17.7 0.00 0.00 0.00 63 1011.4
20260903223252 23 281 6.4 17.7 0.00 0.00 0.00 63 1011.4
20260903223151 23 235 6.4 17.7 0.00 0.00 0.00 63 1011.5
20260903223050 23 273 6.4 17.7 0.00 0.00 0.00 64 1011.4
20260903223000 23 236 8.0 22.5 0.00 0.00 0.00 63 1011.5
20260903222951 23 255 8.0 17.7 0.00 0.00 0.00 63 1011.5
20260903222858 23 267 8.0 22.5 0.00 0.00 0.00 63 1011.5
20260903222849 23 266 8.0 22.5 0.00 0.00 0.00 63 1011.5
20260903222643 23 229 8.0 22.5 0.00 0.00 0.00 63 1011.5
20260903222542 23 223 8.0 22.5 0.00 0.00 0.00 63 1011.6
20260903222443 23 280 8.0 22.5 0.00 0.00 0.00 63 1011.5
20260903222342 23 243 8.0 22.5 0.00 0.00 0.00 63 1011.6
20260903222242 23 217 8.0 22.5 0.00 0.00 0.00 63 1011.6
20260903222138 23 249 6.4 22.5 0.00 0.00 0.00 63 1011.6
20260903222036 23 256 6.4 22.5 0.00 0.00 0.00 62 1011.5
20260903221937 23 243 6.4 22.5 0.00 0.00 0.00 62 1011.6
20260903221834 23 259 6.4 20.9 0.00 0.00 0.00 63 1011.6
20260903221738 23 274 6.4 20.9 0.00 0.00 0.00 63 1011.6
20260903221729 23 214 6.4 20.9 0.00 0.00 0.00 63 1011.6
20260903221629 23 240 6.4 20.9 0.00 0.00 0.00 63 1011.5
20260903221529 23 239 6.4 20.9 0.00 0.00 0.00 63 1011.5
20260903221429 23 274 6.4 20.9 0.00 0.00 0.00 63 1011.5
20260903221326 23 245 6.4 20.9 0.00 0.00 0.00 63 1011.6
20260903221237 23 243 6.4 20.9 0.00 0.00 0.00 63 1011.6
20260903221220 23 229 6.4 20.9 0.00 0.00 0.00 63 1011.6
20260903221124 23 296 6.4 20.9 0.00 0.00 0.00 63 1011.6
20260903221021 23 256 4.8 20.9 0.00 0.00 0.00 63 1011.7
20260903220920 23 231 6.4 20.9 0.00 0.00 0.00 62 1011.7
20260903220818 23 256 6.4 20.9 0.00 0.00 0.00 62 1011.7
20260903220739 23 235 4.8 20.9 0.00 0.00 0.00 62 1011.7
20260903220712 23 246 4.8 20.9 0.00 0.00 0.00 62 1011.7
20260903220613 24 262 4.8 14.5 0.00 0.00 0.00 62 1011.8
20260903220512 24 243 4.8 14.5 0.00 0.00 0.00 62 1011.8
20260903220412 24 238 4.8 14.5 0.00 0.00 0.00 61 1011.8
20260903220312 24 203 3.2 14.5 0.00 0.00 0.00 62 1011.8
20260903220235 24 253 3.2 14.5 0.00 0.00 0.00 62 1011.8
20260903220208 24 193 3.2 14.5 0.00 0.00 0.00 62 1011.8
20260903220107 24 253 4.8 14.5 0.00 0.00 0.00 62 1011.8
20260903220007 24 218 4.8 14.5 0.00 0.00 0.00 61 1011.9
20260903220000 24 271 6.4 20.9 0.00 0.00 0.00 62 1011.9
20260903215907 24 245 4.8 17.7 0.00 0.00 0.00 61 1011.9
20260903215848 24 321 6.4 20.9 0.00 0.00 0.00 61 1011.9
20260903215657 24 205 6.4 20.9 0.00 0.00 0.00 62 1011.8
20260903215558 24 240 6.4 20.9 0.00 0.00 0.00 62 1011.9
20260903215458 24 232 6.4 20.9 0.00 0.00 0.00 62 1011.9
20260903215357 24 257 6.4 20.9 0.00 0.00 0.00 62 1011.9
20260903215257 24 226 6.4 20.9 0.00 0.00 0.00 62 1011.9
20260903215232 24 200 6.4 20.9 0.00 0.00 0.00 62 1011.9
20260903215152 24 248 6.4 20.9 0.00 0.00 0.00 62 1012.0
20260903215052 24 242 6.4 20.9 0.00 0.00 0.00 61 1011.9
20260903214954 24 222 4.8 20.9 0.00 0.00 0.00 60 1012.0
20260903214852 24 239 3.2 17.7 0.00 0.00 0.00 60 1011.9
20260903214750 24 230 3.2 14.5 0.00 0.00 0.00 60 1011.9
20260903214737 24 238 3.2 12.9 0.00 0.00 0.00 60 1011.9
20260903214644 24 287 3.2 12.9 0.00 0.00 0.00 60 1011.9
20260903214544 24 207 3.2 14.5 0.00 0.00 0.00 60 1011.9
20260903214455 24 232 3.2 17.7 0.00 0.00 0.00 61 1012.0
20260903214444 24 148 3.2 17.7 0.00 0.00 0.00 60 1011.9
20260903214352 24 214 3.2 17.7 0.00 0.00 0.00 61 1011.9
20260903214343 24 243 3.2 17.7 0.00 0.00 0.00 61 1012.0
20260903214140 24 281 3.2 17.7 0.00 0.00 0.00 61 1012.0
20260903214040 24 231 3.2 17.7 0.00 0.00 0.00 61 1012.0
20260903213940 24 243 4.8 17.7 0.00 0.00 0.00 61 1012.0
20260903213838 24 234 4.8 17.7 0.00 0.00 0.00 61 1012.0
20260903213740 24 253 6.4 20.9 0.00 0.00 0.00 61 1012.1
20260903213632 24 263 6.4 20.9 0.00 0.00 0.00 61 1012.1
20260903213532 24 208 6.4 20.9 0.00 0.00 0.00 62 1012.0
20260903213432 24 307 6.4 20.9 0.00 0.00 0.00 61 1012.1
20260903213332 24 240 6.4 20.9 0.00 0.00 0.00 61 1012.0
20260903213230 23 228 8.0 20.9 0.00 0.00 0.00 61 1012.0
20260903213125 23 223 8.0 20.9 0.00 0.00 0.00 61 1012.1
20260903213024 23 243 9.7 20.9 0.00 0.00 0.00 60 1012.1
20260903212924 23 214 9.7 20.9 0.00 0.00 0.00 60 1012.1
20260903212824 24 219 9.7 20.9 0.00 0.00 0.00 60 1012.1
20260903212724 24 238 9.7 20.9 0.00 0.00 0.00 60 1012.1
20260903212618 24 218 8.0 20.9 0.00 0.00 0.00 61 1012.2
20260903212518 23 219 9.7 20.9 0.00 0.00 0.00 61 1012.2
20260903212417 23 233 9.7 20.9 0.00 0.00 0.00 61 1012.2
20260903212318 23 221 8.0 20.9 0.00 0.00 0.00 60 1012.2
20260903212220 23 222 8.0 20.9 0.00 0.00 0.00 60 1012.2
20260903212112 24 216 8.0 20.9 0.00 0.00 0.00 60 1012.2
20260903212012 24 222 6.4 20.9 0.00 0.00 0.00 60 1012.2
20260903211912 24 198 6.4 20.9 0.00 0.00 0.00 60 1012.2
20260903211812 24 250 6.4 16.1 0.00 0.00 0.00 60 1012.2
20260903211713 24 225 6.4 16.1 0.00 0.00 0.00 60 1012.2
20260903211608 24 236 6.4 19.3 0.00 0.00 0.00 59 1012.2
20260903211510 24 198 6.4 19.3 0.00 0.00 0.00 60 1012.3
20260903211408 24 239 6.4 19.3 0.00 0.00 0.00 60 1012.3
20260903211308 24 262 6.4 19.3 0.00 0.00 0.00 60 1012.3
20260903211206 24 252 6.4 19.3 0.00 0.00 0.00 60 1012.2
20260903211101 24 243 4.8 19.3 0.00 0.00 0.00 59 1012.2
20260903211000 24 243 4.8 19.3 0.00 0.00 0.00 59 1012.2
20260903210901 25 263 4.8 19.3 0.00 0.00 0.00 59 1012.2
20260903210800 25 238 3.2 19.3 0.00 0.00 0.00 59 1012.2
20260903210706 25 290 3.2 19.3 0.00 0.00 0.00 59 1012.2
20260903210700 25 230 3.2 19.3 0.00 0.00 0.00 59 1012.2
20260903210557 25 250 3.2 12.9 0.00 0.00 0.00 59 1012.2
20260903210456 25 282 3.2 12.9 0.00 0.00 0.00 59 1012.2
20260903210425 25 286 3.2 12.9 0.00 0.00 0.00 60 1012.3
20260903210356 25 250 3.2 12.9 0.00 0.00 0.00 59 1012.2
20260903210311 25 131 3.2 11.3 0.00 0.00 0.00 59 1012.3
20260903210154 25 216 3.2 12.9 0.00 0.00 0.00 60 1012.3
20260903210049 25 256 3.2 12.9 0.00 0.00 0.00 60 1012.3
20260903205949 25 274 3.2 16.1 0.00 0.00 0.00 60 1012.3
20260903205848 25 228 3.2 16.1 0.00 0.00 0.00 60 1012.3
20260903205748 25 350 3.2 16.1 0.00 0.00 0.00 60 1012.3
20260903205701 25 245 4.8 16.1 0.00 0.00 0.00 60 1012.4
20260903205647 25 245 4.8 16.1 0.00 0.00 0.00 59 1012.4
20260903205544 25 270 4.8 16.1 0.00 0.00 0.00 59 1012.3
20260903205442 25 214 4.8 16.1 0.00 0.00 0.00 60 1012.3
20260903205341 25 246 4.8 16.1 0.00 0.00 0.00 59 1012.4
20260903205242 25 239 4.8 16.1 0.00 0.00 0.00 59 1012.3
20260903205201 25 245 4.8 16.1 0.00 0.00 0.00 59 1012.3
20260903205141 24 262 4.8 16.1 0.00 0.00 0.00 60 1012.3
20260903205040 24 158 4.8 16.1 0.00 0.00 0.00 60 1012.3
20260903204939 24 226 3.2 16.1 0.00 0.00 0.00 60 1012.3
20260903204840 24 298 4.8 16.1 0.00 0.00 0.00 60 1012.4
20260903204738 24 294 4.8 16.1 0.00 0.00 0.00 59 1012.4
20260903204701 24 294 4.8 16.1 0.00 0.00 0.00 59 1012.4
20260903204636 24 295 4.8 16.1 0.00 0.00 0.00 60 1012.4
20260903204530 24 263 4.8 16.1 0.00 0.00 0.00 60 1012.4
20260903204429 25 238 4.8 19.3 0.00 0.00 0.00 59 1012.4
20260903204330 25 235 4.8 19.3 0.00 0.00 0.00 59 1012.4
20260903204230 25 233 4.8 19.3 0.00 0.00 0.00 59 1012.4
20260903204201 25 291 4.8 19.3 0.00 0.00 0.00 59 1012.4
20260903204130 25 276 4.8 19.3 0.00 0.00 0.00 59 1012.4
20260903204026 25 248 4.8 19.3 0.00 0.00 0.00 58 1012.4
20260903203926 25 216 3.2 19.3 0.00 0.00 0.00 58 1012.5
20260903203825 25 239 3.2 19.3 0.00 0.00 0.00 58 1012.5
20260903203729 25 271 3.2 20.9 0.00 0.00 0.00 58 1012.5
20260903203659 25 243 4.8 20.9 0.00 0.00 0.00 58 1012.5
20260903203625 25 226 4.8 20.9 0.00 0.00 0.00 58 1012.5
20260903203520 25 291 4.8 20.9 0.00 0.00 0.00 58 1012.5
20260903203420 25 228 3.2 20.9 0.00 0.00 0.00 58 1012.5
20260903203320 25 212 3.2 20.9 0.00 0.00 0.00 59 1012.5
20260903203220 25 233 3.2 20.9 0.00 0.00 0.00 59 1012.5
20260903203158 25 310 4.8 20.9 0.00 0.00 0.00 59 1012.5
20260903203117 25 284 4.8 20.9 0.00 0.00 0.00 59 1012.5
20260903203013 25 164 4.8 20.9 0.00 0.00 0.00 59 1012.5
20260903202912 25 267 3.2 20.9 0.00 0.00 0.00 59 1012.5
20260903202813 25 248 3.2 20.9 0.00 0.00 0.00 58 1012.5
20260903202712 25 173 3.2 19.3 0.00 0.00 0.00 58 1012.5
20260903202656 25 208 3.2 17.7 0.00 0.00 0.00 58 1012.5
20260903202612 25 156 1.6 12.9 0.00 0.00 0.00 58 1012.6
20260903202508 25 218 3.2 12.9 0.00 0.00 0.00 59 1012.6
20260903202406 25 243 3.2 12.9 0.00 0.00 0.00 59 1012.5
20260903202306 24 236 3.2 14.5 0.00 0.00 0.00 59 1012.5
20260903202205 24 243 3.2 14.5 0.00 0.00 0.00 59 1012.5
20260903202155 24 252 3.2 14.5 0.00 0.00 0.00 60 1012.5
20260903202103 24 255 4.8 16.1 0.00 0.00 0.00 60 1012.5
20260903202000 24 255 4.8 20.9 0.00 0.00 0.00 60 1012.5
20260903201857 24 255 6.4 20.9 0.00 0.00 0.00 61 1012.6
20260903201758 23 287 8.0 20.9 0.00 0.00 0.00 61 1012.6
20260903201659 23 229 8.0 24.1 0.00 0.00 0.00 61 1012.6
20260903201555 23 217 9.7 24.1 0.00 0.00 0.00 60 1012.6
20260903201450 23 193 9.7 24.1 0.00 0.00 0.00 60 1012.6
20260903201350 23 245 8.0 24.1 0.00 0.00 0.00 59 1012.6
20260903201250 23 260 8.0 24.1 0.00 0.00 0.00 60 1012.6
20260903201156 23 208 8.0 24.1 0.00 0.00 0.00 59 1012.7
20260903201151 23 200 8.0 24.1 0.00 0.00 0.00 59 1012.7
20260903201048 23 270 8.0 24.1 0.00 0.00 0.00 59 1012.6
20260903200942 23 240 6.4 24.1 0.00 0.00 0.00 59 1012.7
20260903200842 24 239 6.4 24.1 0.00 0.00 0.00 58 1012.7
20260903200742 24 208 4.8 20.9 0.00 0.00 0.00 58 1012.7
20260903200653 24 277 4.8 16.1 0.00 0.00 0.00 59 1012.7
20260903200642 24 281 4.8 16.1 0.00 0.00 0.00 59 1012.7
20260903200542 24 243 4.8 16.1 0.00 0.00 0.00 59 1012.7
20260903200442 24 236 4.8 16.1 0.00 0.00 0.00 60 1012.7
20260903200342 24 260 6.4 16.1 0.00 0.00 0.00 60 1012.7
20260903200242 23 225 6.4 17.7 0.00 0.00 0.00 60 1012.7
20260903200151 23 187 6.4 17.7 0.00 0.00 0.00 60 1012.7
20260903200143 23 246 6.4 17.7 0.00 0.00 0.00 60 1012.7
20260903200042 23 235 6.4 17.7 0.00 0.00 0.00 60 1012.8
20260903195942 23 257 6.4 17.7 0.00 0.00 0.00 61 1012.8
20260903195840 23 246 6.4 17.7 0.00 0.00 0.00 61 1012.8
20260903195740 23 211 6.4 19.3 0.00 0.00 0.00 61 1012.8
20260903195650 23 236 6.4 19.3 0.00 0.00 0.00 61 1012.8
20260903195641 23 241 6.4 19.3 0.00 0.00 0.00 61 1012.8
20260903195538 23 253 6.4 19.3 0.00 0.00 0.00 60 1012.8
20260903195438 24 228 6.4 19.3 0.00 0.00 0.00 60 1012.9
20260903195336 24 252 4.8 19.3 0.00 0.00 0.00 61 1012.9
20260903195236 24 245 4.8 19.3 0.00 0.00 0.00 61 1012.9
20260903195151 23 245 4.8 19.3 0.00 0.00 0.00 61 1012.9
20260903195137 23 238 4.8 19.3 0.00 0.00 0.00 61 1012.9
20260903195036 24 201 4.8 19.3 0.00 0.00 0.00 60 1013.0
20260903194935 24 233 4.8 19.3 0.00 0.00 0.00 60 1013.0
20260903194836 24 219 3.2 19.3 0.00 0.00 0.00 60 1013.0
20260903194734 24 245 3.2 11.3 0.00 0.00 0.00 60 1012.9
20260903194651 24 235 3.2 11.3 0.00 0.00 0.00 60 1012.9
20260903194635 24 226 3.2 11.3 0.00 0.00 0.00 60 1012.9
20260903194533 24 298 3.2 11.3 0.00 0.00 0.00 61 1013.0
20260903194432 24 298 3.2 11.3 0.00 0.00 0.00 61 1012.9
20260903194330 24 307 3.2 11.3 0.00 0.00 0.00 60 1012.9
20260903194228 24 225 3.2 11.3 0.00 0.00 0.00 60 1012.9
20260903194144 24 256 3.2 11.3 0.00 0.00 0.00 60 1012.9
20260903194129 24 284 3.2 11.3 0.00 0.00 0.00 60 1012.9
20260903194028 24 238 3.2 11.3 0.00 0.00 0.00 61 1013.0
20260903193926 24 248 3.2 12.9 0.00 0.00 0.00 61 1013.0
20260903193823 24 248 4.8 14.5 0.00 0.00 0.00 61 1013.0
20260903193727 24 245 4.8 14.5 0.00 0.00 0.00 60 1013.0
20260903193625 24 245 4.8 14.5 0.00 0.00 0.00 62 1013.0
20260903193519 24 245 4.8 14.5 0.00 0.00 0.00 61 1013.0
20260903193420 24 198 4.8 14.5 0.00 0.00 0.00 60 1013.1
20260903193317 24 226 6.4 14.5 0.00 0.00 0.00 60 1013.1
20260903193212 24 235 6.4 14.5 0.00 0.00 0.00 60 1013.1
20260903193132 24 238 6.4 14.5 0.00 0.00 0.00 60 1013.1
20260903193112 24 271 8.0 17.7 0.00 0.00 0.00 60 1013.1
20260903193011 24 263 8.0 22.5 0.00 0.00 0.00 60 1013.1
20260903192912 24 245 8.0 22.5 0.00 0.00 0.00 59 1013.1
20260903192812 24 246 6.4 22.5 0.00 0.00 0.00 59 1013.2
20260903192706 24 253 6.4 22.5 0.00 0.00 0.00 60 1013.2
20260903192626 24 256 6.4 22.5 0.00 0.00 0.00 60 1013.2
20260903192606 24 300 6.4 22.5 0.00 0.00 0.00 60 1013.1
20260903192506 24 180 6.4 22.5 0.00 0.00 0.00 59 1013.2
20260903192406 24 226 4.8 22.5 0.00 0.00 0.00 58 1013.1
20260903192306 25 235 4.8 22.5 0.00 0.00 0.00 57 1013.2
20260903192200 25 249 4.8 22.5 0.00 0.00 0.00 56 1013.2
20260903192121 25 238 4.8 22.5 0.00 0.00 0.00 56 1013.2
20260903192100 25 243 3.2 19.3 0.00 0.00 0.00 56 1013.2
20260903192000 25 145 3.2 16.1 0.00 0.00 0.00 56 1013.2
20260903191900 25 218 3.2 16.1 0.00 0.00 0.00 57 1013.2
20260903191759 25 228 4.8 16.1 0.00 0.00 0.00 57 1013.2
20260903191701 25 228 4.8 16.1 0.00 0.00 0.00 58 1013.2
20260903191615 25 225 4.8 16.1 0.00 0.00 0.00 58 1013.3
20260903191557 25 225 4.8 16.1 0.00 0.00 0.00 58 1013.3
20260903191455 25 224 4.8 16.1 0.00 0.00 0.00 58 1013.2
20260903191356 25 225 4.8 16.1 0.00 0.00 0.00 58 1013.3
20260903191332 25 212 4.8 16.1 0.00 0.00 0.00 58 1013.3
20260903191253 25 300 4.8 16.1 0.00 0.00 0.00 58 1013.3
20260903191219 25 246 4.8 16.1 0.00 0.00 0.00 58 1013.3
20260903191048 25 187 4.8 16.1 0.00 0.00 0.00 59 1013.3
20260903190947 25 231 3.2 16.1 0.00 0.00 0.00 58 1013.3
20260903190848 25 243 3.2 12.9 0.00 0.00 0.00 59 1013.3
20260903190747 24 256 3.2 12.9 0.00 0.00 0.00 59 1013.3
20260903190644 24 243 3.2 12.9 0.00 0.00 0.00 60 1013.3
20260903190602 24 221 3.2 12.9 0.00 0.00 0.00 60 1013.4
20260903190544 24 141 3.2 12.9 0.00 0.00 0.00 60 1013.4
20260903190444 24 236 4.8 14.5 0.00 0.00 0.00 60 1013.4
20260903190343 24 248 4.8 14.5 0.00 0.00 0.00 61 1013.4
20260903190241 24 248 3.2 14.5 0.00 0.00 0.00 61 1013.4
20260903190138 23 278 4.8 14.5 0.00 0.00 0.00 62 1013.4
20260903190109 23 50 3.2 14.5 0.00 0.00 0.00 62 1013.4
20260903190036 23 68 3.2 14.5 0.00 0.00 0.00 61 1013.4
20260903185937 23 246 3.2 14.5 0.00 0.00 0.00 61 1013.4
20260903185836 23 203 3.2 14.5 0.00 0.00 0.00 62 1013.4
20260903185735 23 142 3.2 14.5 0.00 0.00 0.00 61 1013.5
20260903185633 23 246 3.2 14.5 0.00 0.00 0.00 59 1013.5
20260903185550 24 246 3.2 14.5 0.00 0.00 0.00 59 1013.5
20260903185530 24 221 3.2 14.5 0.00 0.00 0.00 60 1013.5
20260903185430 24 248 1.6 11.3 0.00 0.00 0.00 61 1013.4
20260903185329 24 214 1.6 11.3 0.00 0.00 0.00 62 1013.5
20260903185306 24 256 1.6 11.3 0.00 0.00 0.00 62 1013.5
20260903185229 24 164 1.6 11.3 0.00 0.00 0.00 61 1013.5
20260903185156 24 172 1.6 11.3 0.00 0.00 0.00 62 1013.5
20260903185027 24 342 1.6 11.3 0.00 0.00 0.00 62 1013.5
20260903184928 24 342 1.6 11.3 0.00 0.00 0.00 62 1013.5
20260903184826 23 246 1.6 11.3 0.00 0.00 0.00 62 1013.5
20260903184726 23 253 1.6 11.3 0.00 0.00 0.00 62 1013.5
20260903184624 24 222 1.6 11.3 0.00 0.00 0.00 62 1013.6
20260903184538 24 242 1.6 11.3 0.00 0.00 0.00 62 1013.6
20260903184522 24 233 1.6 6.4 0.00 0.00 0.00 63 1013.6
20260903184422 23 228 1.6 6.4 0.00 0.00 0.00 62 1013.6
20260903184320 23 245 1.6 4.8 0.00 0.00 0.00 63 1013.6
20260903184218 23 204 1.6 3.2 0.00 0.00 0.00 63 1013.7
20260903184112 23 203 1.6 12.9 0.00 0.00 0.00 63 1013.6
20260903184033 23 238 1.6 12.9 0.00 0.00 0.00 63 1013.6
20260903184012 23 238 1.6 12.9 0.00 0.00 0.00 64 1013.6
20260903183912 23 238 1.6 12.9 0.00 0.00 0.00 63 1013.7
20260903183812 23 238 1.6 12.9 0.00 0.00 0.00 64 1013.7
20260903183711 23 236 3.2 14.5 0.00 0.00 0.00 64 1013.7
20260903183608 23 226 3.2 14.5 0.00 0.00 0.00 64 1013.7
20260903183526 23 256 3.2 14.5 0.00 0.00 0.00 64 1013.7
20260903183506 23 256 4.8 14.5 0.00 0.00 0.00 64 1013.7
20260903183405 23 256 4.8 14.5 0.00 0.00 0.00 64 1013.7
20260903183306 23 256 4.8 14.5 0.00 0.00 0.00 65 1013.7
20260903183205 23 255 4.8 14.5 0.00 0.00 0.00 64 1013.7
20260903183101 23 221 4.8 14.5 0.00 0.00 0.00 64 1013.7
20260903183021 23 192 4.8 14.5 0.00 0.00 0.00 64 1013.7
20260903183000 23 182 6.4 14.5 0.00 0.00 0.00 65 1013.7
20260903182900 23 250 6.4 14.5 0.00 0.00 0.00 64 1013.8
20260903182800 23 141 6.4 14.5 0.00 0.00 0.00 65 1013.7
20260903182700 23 163 6.4 12.9 0.00 0.00 0.00 65 1013.8
20260903182553 23 226 6.4 12.9 0.00 0.00 0.00 64 1013.8
20260903182514 23 212 6.4 12.9 0.00 0.00 0.00 65 1013.7
20260903182453 22 166 6.4 12.9 0.00 0.00 0.00 65 1013.7
20260903182354 22 230 6.4 12.9 0.00 0.00 0.00 65 1013.7
20260903182254 22 203 6.4 14.5 0.00 0.00 0.00 66 1013.7
20260903182153 22 211 6.4 14.5 0.00 0.00 0.00 67 1013.7
20260903182052 22 160 6.4 14.5 0.00 0.00 0.00 67 1013.8
20260903182008 22 139 6.4 14.5 0.00 0.00 0.00 67 1013.8
20260903181952 22 216 6.4 14.5 0.00 0.00 0.00 67 1013.8
20260903181850 22 198 6.4 14.5 0.00 0.00 0.00 68 1013.8
20260903181749 22 250 6.4 14.5 0.00 0.00 0.00 68 1013.9
20260903181648 22 240 6.4 14.5 0.00 0.00 0.00 67 1013.8
20260903181544 22 243 6.4 14.5 0.00 0.00 0.00 67 1013.9
20260903181503 22 232 6.4 14.5 0.00 0.00 0.00 67 1013.9
20260903181444 22 224 6.4 14.5 0.00 0.00 0.00 67 1013.9
20260903181345 22 242 6.4 16.1 0.00 0.00 0.00 66 1013.9
20260903181244 22 248 6.4 16.1 0.00 0.00 0.00 67 1013.9
20260903181143 22 235 6.4 16.1 0.00 0.00 0.00 67 1013.9
20260903181037 22 243 6.4 16.1 0.00 0.00 0.00 67 1013.9
20260903180956 22 231 6.4 16.1 0.00 0.00 0.00 68 1013.9
20260903180937 22 238 6.4 16.1 0.00 0.00 0.00 69 1013.9
20260903180836 22 230 6.4 16.1 0.00 0.00 0.00 68 1013.9
20260903180736 22 238 6.4 16.1 0.00 0.00 0.00 68 1013.9
20260903180636 22 204 6.4 16.1 0.00 0.00 0.00 67 1013.9
20260903180530 22 222 4.8 16.1 0.00 0.00 0.00 67 1013.9
20260903180450 22 217 4.8 16.1 0.00 0.00 0.00 66 1013.9
20260903180430 22 259 4.8 16.1 0.00 0.00 0.00 66 1013.9
20260903180331 22 259 3.2 12.9 0.00 0.00 0.00 66 1013.9
20260903180230 22 231 3.2 12.9 0.00 0.00 0.00 68 1013.9
20260903180131 22 146 3.2 9.7 0.00 0.00 0.00 68 1013.9
20260903180026 22 215 4.8 12.9 0.00 0.00 0.00 69 1013.9
20260903175944 22 238 4.8 12.9 0.00 0.00 0.00 68 1013.9
20260903175925 22 212 4.8 12.9 0.00 0.00 0.00 68 1013.9
20260903175824 22 235 4.8 12.9 0.00 0.00 0.00 68 1013.9
20260903175724 22 224 4.8 12.9 0.00 0.00 0.00 69 1013.9
20260903175625 22 169 3.2 12.9 0.00 0.00 0.00 70 1013.9
20260903175520 21 266 4.8 12.9 0.00 0.00 0.00 69 1013.9
20260903175445 21 267 4.8 12.9 0.00 0.00 0.00 68 1014.0
20260903175420 21 231 4.8 12.9 0.00 0.00 0.00 68 1014.0
20260903175319 22 137 4.8 12.9 0.00 0.00 0.00 67 1014.0
20260903175220 22 233 4.8 12.9 0.00 0.00 0.00 68 1014.0
20260903175122 22 183 4.8 12.9 0.00 0.00 0.00 67 1014.0
20260903175019 22 273 4.8 12.9 0.00 0.00 0.00 69 1014.0
20260903174945 22 246 4.8 12.9 0.00 0.00 0.00 69 1014.0
20260903174920 22 241 4.8 12.9 0.00 0.00 0.00 69 1014.0
20260903174818 21 215 3.2 12.9 0.00 0.00 0.00 70 1014.0
20260903174718 21 217 4.8 12.9 0.00 0.00 0.00 69 1014.0
20260903174616 21 218 4.8 12.9 0.00 0.00 0.00 68 1014.0
20260903174506 21 232 4.8 12.9 0.00 0.00 0.00 69 1014.0
20260903174445 21 177 4.8 12.9 0.00 0.00 0.00 69 1014.0
20260903174404 21 225 4.8 12.9 0.00 0.00 0.00 69 1014.1
20260903174305 21 238 3.2 12.9 0.00 0.00 0.00 69 1014.1
20260903174204 21 150 3.2 9.7 0.00 0.00 0.00 69 1014.1
20260903174102 21 145 3.2 9.7 0.00 0.00 0.00 69 1014.1
20260903174000 21 203 3.2 9.7 0.00 0.00 0.00 69 1014.1
20260903173945 21 207 3.2 9.7 0.00 0.00 0.00 69 1014.1
20260903173858 21 201 3.2 9.7 0.00 0.00 0.00 70 1014.1
20260903173758 21 164 3.2 9.7 0.00 0.00 0.00 72 1014.1
20260903173658 21 134 3.2 9.7 0.00 0.00 0.00 71 1014.1
20260903173555 21 180 3.2 9.7 0.00 0.00 0.00 72 1014.1
20260903173456 21 161 3.2 11.3 0.00 0.00 0.00 72 1014.1
20260903173445 21 191 3.2 11.3 0.00 0.00 0.00 72 1014.1
20260903173353 21 191 3.2 11.3 0.00 0.00 0.00 72 1014.1
20260903173254 20 219 3.2 11.3 0.00 0.00 0.00 73 1014.1
20260903173153 20 219 3.2 11.3 0.00 0.00 0.00 73 1014.0
20260903173049 20 219 3.2 11.3 0.00 0.00 0.00 74 1014.1
20260903172947 20 226 4.8 11.3 0.00 0.00 0.00 73 1014.1
20260903172843 20 173 4.8 14.5 0.00 0.00 0.00 73 1014.1
20260903172744 20 129 4.8 14.5 0.00 0.00 0.00 74 1014.1
20260903172645 20 233 4.8 14.5 0.00 0.00 0.00 74 1014.1
20260903172543 20 198 4.8 14.5 0.00 0.00 0.00 75 1014.1
20260903172440 20 207 4.8 14.5 0.00 0.00 0.00 75 1014.1
20260903172341 20 203 4.8 14.5 0.00 0.00 0.00 75 1014.2
20260903172239 20 242 6.4 14.5 0.00 0.00 0.00 74 1014.2
20260903172212 20 253 4.8 14.5 0.00 0.00 0.00 74 1014.2
20260903172139 20 233 6.4 14.5 0.00 0.00 0.00 74 1014.2
20260903172104 20 243 6.4 14.5 0.00 0.00 0.00 74 1014.2
20260903171932 20 212 4.8 12.9 0.00 0.00 0.00 74 1014.2
20260903171832 20 284 4.8 12.9 0.00 0.00 0.00 74 1014.3
20260903171732 20 233 4.8 12.9 0.00 0.00 0.00 74 1014.2
20260903171712 20 238 4.8 12.9 0.00 0.00 0.00 74 1014.3
20260903171634 20 210 4.8 12.9 0.00 0.00 0.00 75 1014.2
20260903171552 20 210 4.8 12.9 0.00 0.00 0.00 74 1014.3
20260903171426 20 200 4.8 12.9 0.00 0.00 0.00 74 1014.3
20260903171325 20 257 4.8 12.9 0.00 0.00 0.00 74 1014.2
20260903171226 20 245 4.8 9.7 0.00 0.00 0.00 75 1014.3
20260903171127 20 219 4.8 9.7 0.00 0.00 0.00 75 1014.3
20260903171025 20 236 4.8 9.7 0.00 0.00 0.00 75 1014.3
20260903170939 20 170 4.8 9.7 0.00 0.00 0.00 75 1014.3
20260903170917 20 136 4.8 11.3 0.00 0.00 0.00 75 1014.3
20260903170818 19 217 4.8 11.3 0.00 0.00 0.00 75 1014.3
20260903170718 19 154 4.8 11.3 0.00 0.00 0.00 75 1014.3
20260903170622 19 231 4.8 11.3 0.00 0.00 0.00 75 1014.3
20260903170517 19 250 4.8 11.3 0.00 0.00 0.00 75 1014.3
20260903170439 19 235 4.8 11.3 0.00 0.00 0.00 75 1014.3
20260903170416 19 259 4.8 11.3 0.00 0.00 0.00 75 1014.3
20260903170315 19 243 4.8 11.3 0.00 0.00 0.00 75 1014.3
20260903170216 19 284 4.8 11.3 0.00 0.00 0.00 76 1014.3
20260903170119 19 143 4.8 11.3 0.00 0.00 0.00 75 1014.3
20260903170016 19 236 4.8 11.3 0.00 0.00 0.00 75 1014.3
20260903165939 19 226 4.8 11.3 0.00 0.00 0.00 75 1014.3
20260903165916 19 256 4.8 11.3 0.00 0.00 0.00 75 1014.3
20260903165816 19 238 3.2 11.3 0.00 0.00 0.00 75 1014.3
20260903165716 20 226 3.2 9.7 0.00 0.00 0.00 74 1014.3
20260903165621 20 222 3.2 9.7 0.00 0.00 0.00 75 1014.3
20260903165516 20 214 3.2 9.7 0.00 0.00 0.00 75 1014.3
20260903165416 20 256 3.2 9.7 0.00 0.00 0.00 75 1014.3
20260903165312 20 256 4.8 9.7 0.00 0.00 0.00 75 1014.4
20260903165213 20 233 3.2 12.9 0.00 0.00 0.00 75 1014.3
20260903165112 20 232 3.2 12.9 0.00 0.00 0.00 75 1014.4
20260903165012 20 232 3.2 12.9 0.00 0.00 0.00 75 1014.4
20260903164937 20 239 3.2 12.9 0.00 0.00 0.00 75 1014.4
20260903164912 20 217 3.2 12.9 0.00 0.00 0.00 76 1014.3
20260903164811 19 198 3.2 12.9 0.00 0.00 0.00 76 1014.4
20260903164706 19 198 3.2 12.9 0.00 0.00 0.00 75 1014.4
20260903164606 19 223 3.2 12.9 0.00 0.00 0.00 75 1014.4
20260903164506 19 228 3.2 12.9 0.00 0.00 0.00 75 1014.4
20260903164438 19 212 3.2 12.9 0.00 0.00 0.00 75 1014.4
20260903164406 19 216 3.2 12.9 0.00 0.00 0.00 74 1014.4
20260903164304 20 249 1.6 12.9 0.00 0.00 0.00 74 1014.4
20260903164204 20 243 1.6 8.0 0.00 0.00 0.00 75 1014.3
20260903164102 20 218 1.6 8.0 0.00 0.00 0.00 75 1014.3
20260903163936 20 225 3.2 8.0 0.00 0.00 0.00 76 1014.3
20260903163901 19 225 3.2 8.0 0.00 0.00 0.00 75 1014.3
20260903163757 19 225 3.2 8.0 0.00 0.00 0.00 76 1014.4
20260903163658 19 233 3.2 8.0 0.00 0.00 0.00 76 1014.4
20260903163555 19 242 3.2 8.0 0.00 0.00 0.00 75 1014.4
20260903163456 19 237 3.2 8.0 0.00 0.00 0.00 75 1014.4
20260903163430 19 235 3.2 8.0 0.00 0.00 0.00 75 1014.4
20260903163354 19 231 3.2 8.0 0.00 0.00 0.00 75 1014.4
20260903163251 20 225 3.2 8.0 0.00 0.00 0.00 74 1014.4
20260903163146 20 210 3.2 8.0 0.00 0.00 0.00 74 1014.4
20260903163046 20 233 3.2 8.0 0.00 0.00 0.00 75 1014.4
20260903162946 20 138 1.6 8.0 0.00 0.00 0.00 75 1014.4
20260903162924 20 231 1.6 8.0 0.00 0.00 0.00 75 1014.4
20260903162846 20 166 1.6 8.0 0.00 0.00 0.00 75 1014.4
20260903162746 20 170 1.6 6.4 0.00 0.00 0.00 75 1014.4
20260903162643 20 236 1.6 8.0 0.00 0.00 0.00 74 1014.4
20260903162542 20 235 1.6 8.0 0.00 0.00 0.00 75 1014.4
20260903162442 20 139 1.6 8.0 0.00 0.00 0.00 75 1014.4
20260903162418 20 150 1.6 8.0 0.00 0.00 0.00 75 1014.4
20260903162343 20 246 3.2 8.0 0.00 0.00 0.00 76 1014.5
20260903162240 20 233 3.2 8.0 0.00 0.00 0.00 75 1014.5
20260903162134 20 174 3.2 8.0 0.00 0.00 0.00 76 1014.5
20260903162034 20 149 3.2 9.7 0.00 0.00 0.00 76 1014.5
20260903161934 20 146 3.2 9.7 0.00 0.00 0.00 75 1014.5
20260903161912 20 219 4.8 9.7 0.00 0.00 0.00 74 1014.5
20260903161833 20 219 4.8 9.7 0.00 0.00 0.00 74 1014.5
20260903161734 20 172 3.2 9.7 0.00 0.00 0.00 75 1014.5
20260903161630 20 218 3.2 9.7 0.00 0.00 0.00 75 1014.5
20260903161528 20 226 3.2 9.7 0.00 0.00 0.00 76 1014.5
20260903161427 20 134 3.2 9.7 0.00 0.00 0.00 75 1014.5
20260903161406 20 134 4.8 9.7 0.00 0.00 0.00 75 1014.5
20260903161328 20 226 4.8 9.7 0.00 0.00 0.00 75 1014.5
20260903161228 20 129 4.8 9.7 0.00 0.00 0.00 74 1014.5
20260903161124 20 117 3.2 9.7 0.00 0.00 0.00 75 1014.6
20260903161022 20 148 3.2 9.7 0.00 0.00 0.00 75 1014.6
20260903160922 20 200 3.2 9.7 0.00 0.00 0.00 76 1014.6
20260903160900 20 127 3.2 9.7 0.00 0.00 0.00 77 1014.6
20260903160822 19 158 3.2 9.7 0.00 0.00 0.00 77 1014.6
20260903160722 19 141 3.2 9.7 0.00 0.00 0.00 78 1014.6
20260903160622 19 150 4.8 9.7 0.00 0.00 0.00 77 1014.6
20260903160517 19 143 4.8 9.7 0.00 0.00 0.00 77 1014.6
20260903160416 19 136 4.8 9.7 0.00 0.00 0.00 77 1014.6
20260903160354 19 121 4.8 9.7 0.00 0.00 0.00 77 1014.6
20260903160316 18 108 4.8 9.7 0.00 0.00 0.00 77 1014.6
20260903160216 18 154 4.8 9.7 0.00 0.00 0.00 78 1014.6
20260903160112 18 204 3.2 9.7 0.00 0.00 0.00 78 1014.6
20260903160012 18 184 3.2 9.7 0.00 0.00 0.00 78 1014.6
20260903155912 18 217 4.8 9.7 0.00 0.00 0.00 78 1014.6
20260903155850 18 215 4.8 9.7 0.00 0.00 0.00 78 1014.6
20260903155812 18 241 4.8 9.7 0.00 0.00 0.00 78 1014.6
20260903155714 18 229 4.8 9.7 0.00 0.00 0.00 78 1014.6
20260903155604 18 201 4.8 9.7 0.00 0.00 0.00 78 1014.6
20260903155504 18 118 3.2 9.7 0.00 0.00 0.00 78 1014.6
20260903155404 18 146 3.2 9.7 0.00 0.00 0.00 78 1014.6
20260903155343 18 142 3.2 9.7 0.00 0.00 0.00 79 1014.6
20260903155306 18 137 3.2 9.7 0.00 0.00 0.00 79 1014.6
20260903155204 18 129 4.8 9.7 0.00 0.00 0.00 79 1014.6
20260903155105 18 110 4.8 9.7 0.00 0.00 0.00 79 1014.6
20260903155056 18 141 3.2 9.7 0.00 0.00 0.00 78 1014.7
20260903155002 18 102 4.8 9.7 0.00 0.00 0.00 79 1014.6
20260903154947 18 141 3.2 9.7 0.00 0.00 0.00 78 1014.7
20260903154802 18 150 3.2 9.7 0.00 0.00 0.00 79 1014.7
20260903154658 18 159 3.2 8.0 0.00 0.00 0.00 79 1014.7
20260903154554 18 148 3.2 8.0 0.00 0.00 0.00 80 1014.7
20260903154453 18 122 3.2 8.0 0.00 0.00 0.00 80 1014.7
20260903154352 18 136 3.2 8.0 0.00 0.00 0.00 80 1014.7
20260903154330 18 117 3.2 8.0 0.00 0.00 0.00 80 1014.7
20260903154252 18 111 3.2 8.0 0.00 0.00 0.00 80 1014.7
20260903154152 18 124 3.2 6.4 0.00 0.00 0.00 81 1014.7
20260903154049 18 138 3.2 8.0 0.00 0.00 0.00 81 1014.7
20260903153948 18 146 3.2 8.0 0.00 0.00 0.00 81 1014.7
20260903153848 18 133 3.2 8.0 0.00 0.00 0.00 81 1014.7
20260903153824 17 141 3.2 8.0 0.00 0.00 0.00 81 1014.7
20260903153748 17 231 3.2 8.0 0.00 0.00 0.00 82 1014.8
20260903153647 17 146 4.8 8.0 0.00 0.00 0.00 82 1014.7
20260903153542 17 138 3.2 8.0 0.00 0.00 0.00 83 1014.8
20260903153440 17 154 4.8 8.0 0.00 0.00 0.00 83 1014.8
20260903153340 17 139 4.8 11.3 0.00 0.00 0.00 83 1014.7
20260903153318 17 113 4.8 11.3 0.00 0.00 0.00 83 1014.7
20260903153239 17 120 4.8 11.3 0.00 0.00 0.00 83 1014.8
20260903153140 17 143 4.8 11.3 0.00 0.00 0.00 84 1014.8
20260903153033 17 130 4.8 11.3 0.00 0.00 0.00 85 1014.7
20260903152935 17 144 4.8 11.3 0.00 0.00 0.00 84 1014.8
20260903152834 17 107 4.8 11.3 0.00 0.00 0.00 84 1014.8
20260903152811 16 101 4.8 11.3 0.00 0.00 0.00 84 1014.9
20260903152734 16 92 4.8 11.3 0.00 0.00 0.00 85 1014.9
20260903152634 16 136 4.8 11.3 0.00 0.00 0.00 85 1014.9
20260903152530 16 110 4.8 11.3 0.00 0.00 0.00 85 1014.8
20260903152429 16 105 4.8 11.3 0.00 0.00 0.00 85 1014.8
20260903152330 16 119 4.8 11.3 0.00 0.00 0.00 85 1014.8
20260903152313 16 167 4.8 11.3 0.00 0.00 0.00 85 1014.8
20260903152258 16 100 4.8 9.7 0.00 0.00 0.00 86 1014.8
20260903152230 16 145 4.8 11.3 0.00 0.00 0.00 86 1014.8
20260903152145 16 150 4.8 11.3 0.00 0.00 0.00 86 1014.8
20260903152022 16 101 4.8 11.3 0.00 0.00 0.00 86 1014.8
20260903151932 16 93 4.8 9.7 0.00 0.00 0.00 86 1014.7
20260903151923 16 136 4.8 9.7 0.00 0.00 0.00 86 1014.8
20260903151720 16 113 4.8 9.7 0.00 0.00 0.00 87 1014.8
20260903151620 16 94 4.8 9.7 0.00 0.00 0.00 87 1014.9
20260903151514 16 154 4.8 9.7 0.00 0.00 0.00 87 1014.9
20260903151414 16 93 4.8 9.7 0.00 0.00 0.00 88 1014.9
20260903151320 15 105 4.8 9.7 0.00 0.00 0.00 88 1014.9
20260903151313 15 103 4.8 9.7 0.00 0.00 0.00 88 1014.9
20260903151215 15 121 4.8 9.7 0.00 0.00 0.00 88 1014.9
20260903151114 15 104 4.8 9.7 0.00 0.00 0.00 88 1014.9
20260903151006 15 100 3.2 9.7 0.00 0.00 0.00 88 1014.9
20260903150905 15 99 3.2 9.7 0.00 0.00 0.00 88 1014.9
20260903150812 15 108 3.2 8.0 0.00 0.00 0.00 88 1014.9
20260903150806 15 101 3.2 8.0 0.00 0.00 0.00 88 1014.9
20260903150706 15 96 1.6 8.0 0.00 0.00 0.00 88 1014.9
20260903150605 15 88 1.6 8.0 0.00 0.00 0.00 88 1014.9
20260903150503 15 94 1.6 8.0 0.00 0.00 0.00 89 1014.9
20260903150400 15 98 1.6 8.0 0.00 0.00 0.00 89 1014.9
20260903150314 15 54 1.6 8.0 0.00 0.00 0.00 90 1014.9
20260903150300 15 84 1.6 8.0 0.00 0.00 0.00 90 1014.9
20260903150201 15 104 1.6 4.8 0.00 0.00 0.00 90 1014.9
20260903150057 15 131 1.6 4.8 0.00 0.00 0.00 91 1014.9
20260903150032 14 117 1.6 4.8 0.00 0.00 0.00 90 1014.9
20260903145954 15 166 1.6 4.8 0.00 0.00 0.00 90 1014.9
20260903145923 15 166 1.6 4.8 0.00 0.00 0.00 90 1014.9
20260903145752 14 117 1.6 4.8 0.00 0.00 0.00 90 1014.9
20260903145651 14 105 1.6 4.8 0.00 0.00 0.00 90 1014.9
20260903145549 14 99 1.6 4.8 0.00 0.00 0.00 90 1014.8
20260903145450 14 107 1.6 6.4 0.00 0.00 0.00 90 1014.9
20260903145349 14 107 1.6 6.4 0.00 0.00 0.00 90 1014.8
20260903145309 14 116 1.6 6.4 0.00 0.00 0.00 90 1014.8
20260903145245 14 105 1.6 6.4 0.00 0.00 0.00 90 1014.8
20260903145147 14 158 1.6 6.4 0.00 0.00 0.00 90 1014.8
20260903145043 14 134 1.6 8.0 0.00 0.00 0.00 90 1014.9
20260903144942 14 134 1.6 8.0 0.00 0.00 0.00 90 1014.8
20260903144839 14 131 1.6 8.0 0.00 0.00 0.00 90 1014.8
20260903144809 14 131 1.6 8.0 0.00 0.00 0.00 90 1014.8
20260903144740 14 144 1.6 9.7 0.00 0.00 0.00 90 1014.8
20260903144639 14 143 1.6 9.7 0.00 0.00 0.00 90 1014.8
20260903144535 14 115 1.6 9.7 0.00 0.00 0.00 90 1014.7
20260903144434 14 89 1.6 9.7 0.00 0.00 0.00 90 1014.7
20260903144309 14 139 3.2 9.7 0.00 0.00 0.00 90 1014.7
20260903144232 14 124 3.2 9.7 0.00 0.00 0.00 90 1014.7
20260903144133 14 160 1.6 9.7 0.00 0.00 0.00 90 1014.8
20260903144033 14 143 3.2 9.7 0.00 0.00 0.00 90 1014.7
20260903143932 14 148 3.2 9.7 0.00 0.00 0.00 90 1014.8
20260903143832 14 135 3.2 9.7 0.00 0.00 0.00 90 1014.8
20260903143807 14 159 1.6 9.7 0.00 0.00 0.00 90 1014.9
20260903143733 14 150 1.6 9.7 0.00 0.00 0.00 90 1014.9
20260903143634 14 150 3.2 9.7 0.00 0.00 0.00 90 1014.8
20260903143531 14 150 3.2 9.7 0.00 0.00 0.00 90 1014.7
20260903143430 14 125 3.2 9.7 0.00 0.00 0.00 90 1014.7
20260903143328 14 125 1.6 9.7 0.00 0.00 0.00 91 1014.8
20260903143307 14 127 1.6 8.0 0.00 0.00 0.00 91 1014.7
20260903143228 14 139 1.6 8.0 0.00 0.00 0.00 91 1014.7
20260903143129 14 127 1.6 8.0 0.00 0.00 0.00 91 1014.7
20260903143028 14 130 1.6 8.0 0.00 0.00 0.00 91 1014.7
20260903142929 14 139 1.6 8.0 0.00 0.00 0.00 91 1014.7
20260903142829 14 76 1.6 8.0 0.00 0.00 0.00 91 1014.7
20260903142805 14 139 1.6 8.0 0.00 0.00 0.00 91 1014.7
20260903142724 14 144 1.6 8.0 0.00 0.00 0.00 91 1014.7
20260903142626 14 146 1.6 8.0 0.00 0.00 0.00 91 1014.7
20260903142525 14 150 1.6 8.0 0.00 0.00 0.00 91 1014.7
20260903142424 13 158 1.6 8.0 0.00 0.00 0.00 91 1014.7
20260903142321 13 165 1.6 8.0 0.00 0.00 0.00 91 1014.7
20260903142306 13 170 1.6 8.0 0.00 0.00 0.00 91 1014.6
20260903142216 13 170 1.6 8.0 0.00 0.00 0.00 91 1014.6
20260903142116 13 154 1.6 6.4 0.00 0.00 0.00 91 1014.6
20260903142015 13 101 1.6 6.4 0.00 0.00 0.00 91 1014.7
20260903141915 13 172 1.6 6.4 0.00 0.00 0.00 91 1014.7
20260903141807 13 169 1.6 6.4 0.00 0.00 0.00 91 1014.6
20260903141707 13 111 1.6 6.4 0.00 0.00 0.00 91 1014.6
20260903141609 13 158 1.6 6.4 0.00 0.00 0.00 91 1014.6
20260903141508 13 113 1.6 6.4 0.00 0.00 0.00 91 1014.6
20260903141408 13 115 1.6 6.4 0.00 0.00 0.00 91 1014.6
20260903141309 13 91 1.6 6.4 0.00 0.00 0.00 91 1014.6
20260903141205 13 132 1.6 6.4 0.00 0.00 0.00 91 1014.6
20260903141102 13 107 1.6 6.4 0.00 0.00 0.00 91 1014.6
20260903141002 13 131 1.6 6.4 0.00 0.00 0.00 91 1014.6
20260903140902 13 134 1.6 6.4 0.00 0.00 0.00 91 1014.6
20260903140803 13 186 1.6 6.4 0.00 0.00 0.00 91 1014.6
20260903140658 13 138 1.6 4.8 0.00 0.00 0.00 91 1014.6
20260903140557 13 141 1.6 8.0 0.00 0.00 0.00 91 1014.6
20260903140456 13 134 1.6 8.0 0.00 0.00 0.00 91 1014.6
20260903140356 13 134 1.6 8.0 0.00 0.00 0.00 91 1014.6
20260903140256 13 142 1.6 8.0 0.00 0.00 0.00 91 1014.6
20260903140154 13 108 1.6 8.0 0.00 0.00 0.00 91 1014.6
20260903140049 13 148 1.6 8.0 0.00 0.00 0.00 91 1014.6
20260903135950 13 161 1.6 8.0 0.00 0.00 0.00 91 1014.6
20260903135850 13 113 1.6 8.0 0.00 0.00 0.00 91 1014.6
20260903135750 13 162 1.6 8.0 0.00 0.00 0.00 91 1014.6
20260903135644 13 124 1.6 8.0 0.00 0.00 0.00 91 1014.6
20260903135544 13 158 1.6 4.8 0.00 0.00 0.00 91 1014.6
20260903135444 13 146 1.6 4.8 0.00 0.00 0.00 91 1014.6
20260903135345 13 135 1.6 4.8 0.00 0.00 0.00 91 1014.5
20260903135245 13 146 1.6 4.8 0.00 0.00 0.00 91 1014.5
20260903135140 13 146 1.6 4.8 0.00 0.00 0.00 91 1014.5
20260903135038 13 150 1.6 3.2 0.00 0.00 0.00 91 1014.5
20260903134938 13 150 1.6 4.8 0.00 0.00 0.00 91 1014.5
20260903134838 13 154 1.6 4.8 0.00 0.00 0.00 91 1014.5
20260903134739 13 150 1.6 4.8 0.00 0.00 0.00 91 1014.5
20260903134635 13 104 1.6 4.8 0.00 0.00 0.00 91 1014.5
20260903134531 13 104 1.6 4.8 0.00 0.00 0.00 91 1014.5
20260903134432 13 104 1.6 4.8 0.00 0.00 0.00 91 1014.5
20260903134332 13 94 1.6 4.8 0.00 0.00 0.00 91 1014.5
20260903134232 13 111 1.6 4.8 0.00 0.00 0.00 91 1014.4
20260903134129 13 110 1.6 4.8 0.00 0.00 0.00 91 1014.4
20260903134028 13 114 1.6 4.8 0.00 0.00 0.00 91 1014.4
20260903133928 13 99 1.6 4.8 0.00 0.00 0.00 91 1014.4
20260903133828 13 117 1.6 4.8 0.00 0.00 0.00 91 1014.4
20260903133726 13 109 1.6 4.8 0.00 0.00 0.00 91 1014.4
20260903133623 13 111 1.6 4.8 0.00 0.00 0.00 91 1014.5
20260903133520 13 103 1.6 4.8 0.00 0.00 0.00 91 1014.5
20260903133419 13 117 1.6 4.8 0.00 0.00 0.00 91 1014.4
20260903133320 13 99 1.6 4.8 0.00 0.00 0.00 91 1014.4
20260903133221 13 108 1.6 4.8 0.00 0.00 0.00 91 1014.4
20260903133118 13 114 1.6 4.8 0.00 0.00 0.00 91 1014.4
20260903133014 13 105 1.6 4.8 0.00 0.00 0.00 91 1014.4
20260903132914 13 101 1.6 4.8 0.00 0.00 0.00 91 1014.3
20260903132815 13 158 0.0 4.8 0.00 0.00 0.00 91 1014.4
20260903132715 13 139 1.6 4.8 0.00 0.00 0.00 91 1014.4
20260903132656 13 139 0.0 3.2 0.00 0.00 0.00 91 1014.4
20260903132611 13 139 1.6 4.8 0.00 0.00 0.00 91 1014.4
20260903132538 13 139 0.0 4.8 0.00 0.00 0.00 91 1014.4
20260903132408 13 155 0.0 3.2 0.00 0.00 0.00 91 1014.4
20260903132324 13 155 0.0 3.2 0.00 0.00 0.00 91 1014.4
20260903132314 13 139 0.0 3.2 0.00 0.00 0.00 91 1014.4
20260903132102 13 137 0.0 3.2 0.00 0.00 0.00 91 1014.4
20260903132002 13 136 0.0 3.2 0.00 0.00 0.00 91 1014.4
20260903131902 13 137 0.0 3.2 0.00 0.00 0.00 91 1014.4
20260903131801 13 136 0.0 3.2 0.00 0.00 0.00 91 1014.4
20260903131707 13 151 0.0 3.2 0.00 0.00 0.00 91 1014.5
20260903131702 13 150 0.0 3.2 0.00 0.00 0.00 91 1014.5
20260903131558 13 151 1.6 3.2 0.00 0.00 0.00 91 1014.5
20260903131458 13 93 1.6 3.2 0.00 0.00 0.00 91 1014.5
20260903131358 13 93 1.6 6.4 0.00 0.00 0.00 91 1014.5
20260903131258 13 109 1.6 6.4 0.00 0.00 0.00 91 1014.5
20260903131203 13 108 1.6 6.4 0.00 0.00 0.00 91 1014.5
20260903131156 13 108 1.6 6.4 0.00 0.00 0.00 91 1014.5
20260903131144 13 109 1.6 6.4 0.00 0.00 0.00 91 1014.5
20260903131052 13 109 1.6 6.4 0.00 0.00 0.00 91 1014.5
20260903131030 13 109 1.6 6.4 0.00 0.00 0.00 91 1014.5
20260903130850 13 108 1.6 6.4 0.00 0.00 0.00 91 1014.5
20260903130811 13 109 1.6 6.4 0.00 0.00 0.00 91 1014.5
20260903130653 13 109 1.6 6.4 0.00 0.00 0.00 91 1014.5
20260903130546 13 104 1.6 6.4 0.00 0.00 0.00 91 1014.4
20260903130446 13 104 1.6 6.4 0.00 0.00 0.00 91 1014.4
20260903130345 13 89 1.6 4.8 0.00 0.00 0.00 91 1014.4
20260903130246 13 113 1.6 4.8 0.00 0.00 0.00 91 1014.4
20260903130159 13 108 1.6 4.8 0.00 0.00 0.00 91 1014.5
20260903130144 13 115 1.6 4.8 0.00 0.00 0.00 91 1014.5
20260903130043 13 110 1.6 4.8 0.00 0.00 0.00 91 1014.5
20260903125942 13 119 1.6 4.8 0.00 0.00 0.00 91 1014.4
20260903125842 13 122 1.6 4.8 0.00 0.00 0.00 91 1014.5
20260903125740 13 122 1.6 4.8 0.00 0.00 0.00 91 1014.5
20260903125701 13 113 0.0 4.8 0.00 0.00 0.00 91 1014.5
20260903125638 13 89 0.0 4.8 0.00 0.00 0.00 91 1014.5
20260903125535 13 113 0.0 3.2 0.00 0.00 0.00 91 1014.5
20260903125432 13 117 0.0 3.2 0.00 0.00 0.00 91 1014.5
20260903125332 13 117 0.0 3.2 0.00 0.00 0.00 91 1014.5
20260903125232 13 117 0.0 3.2 0.00 0.00 0.00 91 1014.5
20260903125130 13 117 0.0 3.2 0.00 0.00 0.00 91 1014.5
20260903125023 13 113 0.0 3.2 0.00 0.00 0.00 91 1014.5
20260903124924 13 113 0.0 3.2 0.00 0.00 0.00 91 1014.5
20260903124823 13 113 1.6 4.8 0.00 0.00 0.00 91 1014.5
20260903124724 13 113 1.6 4.8 0.00 0.00 0.00 91 1014.5
20260903124700 13 113 1.6 4.8 0.00 0.00 0.00 91 1014.6
20260903124624 13 113 1.6 4.8 0.00 0.00 0.00 90 1014.6
20260903124520 13 158 0.0 4.8 0.00 0.00 0.00 90 1014.5
20260903124417 13 139 0.0 4.8 0.00 0.00 0.00 90 1014.5
20260903124317 13 176 0.0 4.8 0.00 0.00 0.00 90 1014.5
20260903124218 13 176 0.0 4.8 0.00 0.00 0.00 90 1014.5
20260903124200 13 176 0.0 4.8 0.00 0.00 0.00 90 1014.5
20260903124118 13 158 0.0 4.8 0.00 0.00 0.00 90 1014.5
20260903124014 13 158 0.0 4.8 0.00 0.00 0.00 91 1014.5
20260903123914 13 158 0.0 4.8 0.00 0.00 0.00 91 1014.5
20260903123814 13 102 0.0 4.8 0.00 0.00 0.00 90 1014.5
20260903123713 13 160 0.0 4.8 0.00 0.00 0.00 90 1014.6
20260903123700 13 160 0.0 4.8 0.00 0.00 0.00 90 1014.6
20260903123615 13 160 0.0 4.8 0.00 0.00 0.00 90 1014.6
20260903123510 13 161 1.6 4.8 0.00 0.00 0.00 90 1014.5
20260903123409 13 161 1.6 4.8 0.00 0.00 0.00 90 1014.6
20260903123308 13 161 1.6 4.8 0.00 0.00 0.00 90 1014.6
20260903123210 13 104 1.6 4.8 0.00 0.00 0.00 90 1014.6
20260903123200 13 104 1.6 4.8 0.00 0.00 0.00 90 1014.6
20260903123106 13 141 1.6 4.8 0.00 0.00 0.00 90 1014.6
20260903123002 13 141 1.6 4.8 0.00 0.00 0.00 90 1014.5
20260903122900 13 145 1.6 4.8 0.00 0.00 0.00 90 1014.5
20260903122800 13 120 1.6 4.8 0.00 0.00 0.00 90 1014.6
20260903122702 13 104 1.6 4.8 0.00 0.00 0.00 90 1014.6
20260903122559 13 114 1.6 4.8 0.00 0.00 0.00 90 1014.6
20260903122455 13 104 1.6 4.8 0.00 0.00 0.00 90 1014.6
20260903122356 13 105 1.6 4.8 0.00 0.00 0.00 90 1014.5
20260903122256 13 99 1.6 4.8 0.00 0.00 0.00 90 1014.6
20260903122157 13 99 1.6 4.8 0.00 0.00 0.00 90 1014.6
20260903122054 13 99 1.6 4.8 0.00 0.00 0.00 90 1014.5
20260903121950 13 113 1.6 4.8 0.00 0.00 0.00 90 1014.5
20260903121930 13 61 1.6 3.2 0.00 0.00 0.00 90 1014.6
20260903121848 13 71 1.6 3.2 0.00 0.00 0.00 90 1014.6
20260903121818 13 105 1.6 3.2 0.00 0.00 0.00 90 1014.6
20260903121646 13 97 1.6 3.2 0.00 0.00 0.00 90 1014.6
20260903121546 13 110 1.6 3.2 0.00 0.00 0.00 90 1014.6
20260903121442 13 97 1.6 3.2 0.00 0.00 0.00 90 1014.6
20260903121343 13 117 1.6 3.2 0.00 0.00 0.00 90 1014.6
20260903121241 13 108 1.6 3.2 0.00 0.00 0.00 90 1014.6
20260903121151 13 105 1.6 3.2 0.00 0.00 0.00 90 1014.6
20260903121142 13 107 1.6 3.2 0.00 0.00 0.00 90 1014.6
20260903121042 13 107 1.6 3.2 0.00 0.00 0.00 90 1014.6
20260903120941 13 108 1.6 3.2 0.00 0.00 0.00 90 1014.6
20260903120842 13 92 1.6 3.2 0.00 0.00 0.00 90 1014.6
20260903120742 13 108 1.6 4.8 0.00 0.00 0.00 90 1014.6
20260903120643 13 117 1.6 4.8 0.00 0.00 0.00 90 1014.6
20260903120542 13 114 1.6 4.8 0.00 0.00 0.00 90 1014.6
20260903120442 13 114 1.6 4.8 0.00 0.00 0.00 90 1014.6
20260903120342 13 115 1.6 4.8 0.00 0.00 0.00 90 1014.6
20260903120242 13 114 1.6 6.4 0.00 0.00 0.00 90 1014.6
20260903120142 13 102 1.6 6.4 0.00 0.00 0.00 90 1014.6
20260903120042 13 105 1.6 6.4 0.00 0.00 0.00 90 1014.6
20260903115942 13 115 1.6 6.4 0.00 0.00 0.00 90 1014.6
20260903115907 13 98 1.6 6.4 0.00 0.00 0.00 90 1014.7
20260903115841 13 115 1.6 6.4 0.00 0.00 0.00 90 1014.6
20260903115758 13 117 1.6 6.4 0.00 0.00 0.00 90 1014.7
20260903115642 13 107 1.6 6.4 0.00 0.00 0.00 90 1014.7
20260903115538 13 98 1.6 6.4 0.00 0.00 0.00 90 1014.7
20260903115438 13 121 1.6 6.4 0.00 0.00 0.00 90 1014.7
20260903115408 13 108 0.0 3.2 0.00 0.00 0.00 90 1014.7
20260903115339 13 105 1.6 6.4 0.00 0.00 0.00 90 1014.7
20260903115258 13 117 1.6 3.2 0.00 0.00 0.00 90 1014.7
20260903115137 13 109 0.0 3.2 0.00 0.00 0.00 90 1014.7
20260903115039 13 107 0.0 3.2 0.00 0.00 0.00 90 1014.7
20260903114937 13 107 1.6 4.8 0.00 0.00 0.00 90 1014.8
20260903114839 13 107 1.6 4.8 0.00 0.00 0.00 90 1014.7
20260903114740 13 107 1.6 4.8 0.00 0.00 0.00 90 1014.7
20260903114640 13 108 1.6 4.8 0.00 0.00 0.00 90 1014.7
20260903114538 13 107 1.6 4.8 0.00 0.00 0.00 89 1014.8
20260903114437 13 108 1.6 4.8 0.00 0.00 0.00 89 1014.7
20260903114338 13 108 1.6 4.8 0.00 0.00 0.00 90 1014.8
20260903114238 13 107 1.6 4.8 0.00 0.00 0.00 89 1014.8
20260903114147 13 107 1.6 4.8 0.00 0.00 0.00 89 1014.8
20260903114138 13 108 1.6 4.8 0.00 0.00 0.00 89 1014.8
20260903114039 13 107 3.2 4.8 0.00 0.00 0.00 89 1014.8
20260903113938 13 111 3.2 4.8 0.00 0.00 0.00 89 1014.8
20260903113838 13 111 3.2 4.8 0.00 0.00 0.00 89 1014.8
20260903113739 13 112 3.2 4.8 0.00 0.00 0.00 89 1014.8
20260903113647 13 107 3.2 4.8 0.00 0.00 0.00 89 1014.9
20260903113638 13 91 3.2 4.8 0.00 0.00 0.00 89 1014.9
20260903113534 13 118 3.2 4.8 0.00 0.00 0.00 89 1014.8
20260903113435 13 109 3.2 4.8 0.00 0.00 0.00 89 1014.8
20260903113334 13 117 1.6 4.8 0.00 0.00 0.00 89 1014.8
20260903113234 13 94 1.6 4.8 0.00 0.00 0.00 89 1014.9
20260903113148 14 110 1.6 4.8 0.00 0.00 0.00 89 1014.8
20260903113134 14 109 1.6 4.8 0.00 0.00 0.00 89 1014.8
20260903113035 14 103 1.6 4.8 0.00 0.00 0.00 89 1014.9
20260903112934 14 107 1.6 4.8 0.00 0.00 0.00 89 1014.9
20260903112834 14 100 1.6 4.8 0.00 0.00 0.00 89 1014.8
20260903112734 14 103 0.0 3.2 0.00 0.00 0.00 89 1014.9
20260903112647 14 117 0.0 3.2 0.00 0.00 0.00 89 1014.8
20260903112638 14 108 0.0 3.2 0.00 0.00 0.00 89 1014.8
20260903112534 14 102 0.0 3.2 0.00 0.00 0.00 89 1014.9
20260903112434 14 101 0.0 3.2 0.00 0.00 0.00 89 1014.8
20260903112334 14 102 0.0 3.2 0.00 0.00 0.00 89 1014.8
20260903112234 14 102 0.0 3.2 0.00 0.00 0.00 89 1014.8
20260903112147 14 102 0.0 3.2 0.00 0.00 0.00 89 1014.8
20260903112134 14 101 0.0 3.2 0.00 0.00 0.00 89 1014.8
20260903112034 14 100 0.0 3.2 0.00 0.00 0.00 89 1014.8
20260903111934 14 132 0.0 3.2 0.00 0.00 0.00 89 1014.8
20260903111834 14 133 0.0 3.2 0.00 0.00 0.00 89 1014.8
20260903111731 14 132 0.0 3.2 0.00 0.00 0.00 89 1014.9
20260903111647 14 132 0.0 3.2 0.00 0.00 0.00 89 1014.9
20260903111630 14 133 0.0 3.2 0.00 0.00 0.00 89 1014.9
20260903111529 14 133 0.0 3.2 0.00 0.00 0.00 89 1014.9
20260903111430 14 132 1.6 3.2 0.00 0.00 0.00 89 1014.9
20260903111329 14 133 1.6 3.2 0.00 0.00 0.00 89 1014.9
20260903111230 14 132 1.6 3.2 0.00 0.00 0.00 89 1015.0
20260903111147 14 149 0.0 3.2 0.00 0.00 0.00 89 1015.0
20260903111131 14 150 0.0 3.2 0.00 0.00 0.00 89 1015.0
20260903111030 14 124 0.0 3.2 0.00 0.00 0.00 89 1014.9
20260903110930 14 140 0.0 3.2 0.00 0.00 0.00 89 1015.0
20260903110830 14 141 1.6 3.2 0.00 0.00 0.00 89 1015.0
20260903110730 14 141 1.6 3.2 0.00 0.00 0.00 89 1015.0
20260903110630 14 141 1.6 3.2 0.00 0.00 0.00 89 1015.0
20260903110529 14 141 1.6 3.2 0.00 0.00 0.00 88 1014.9
20260903110430 14 141 1.6 3.2 0.00 0.00 0.00 88 1015.0
20260903110330 14 148 0.0 3.2 0.00 0.00 0.00 88 1015.0
20260903110229 14 150 0.0 3.2 0.00 0.00 0.00 88 1015.0
20260903110131 14 150 1.6 3.2 0.00 0.00 0.00 88 1015.0
20260903110030 14 136 1.6 3.2 0.00 0.00 0.00 88 1015.0
20260903105930 14 124 0.0 3.2 0.00 0.00 0.00 88 1015.0
20260903105827 14 124 0.0 3.2 0.00 0.00 0.00 88 1015.0
20260903105726 14 124 0.0 3.2 0.00 0.00 0.00 88 1015.1
20260903105647 14 124 0.0 3.2 0.00 0.00 0.00 88 1015.1
20260903105626 14 118 0.0 3.2 0.00 0.00 0.00 88 1015.1
20260903105526 14 117 0.0 3.2 0.00 0.00 0.00 88 1015.0
20260903105425 14 117 0.0 3.2 0.00 0.00 0.00 88 1015.0
20260903105324 14 117 0.0 3.2 0.00 0.00 0.00 88 1015.0
20260903105224 14 117 1.6 3.2 0.00 0.00 0.00 88 1015.0
20260903105125 14 117 1.6 3.2 0.00 0.00 0.00 88 1015.0
20260903105022 14 139 1.6 3.2 0.00 0.00 0.00 88 1015.0
20260903104923 14 139 1.6 3.2 0.00 0.00 0.00 88 1015.0
20260903104822 14 139 1.6 3.2 0.00 0.00 0.00 88 1015.0
20260903104723 14 139 1.6 3.2 0.00 0.00 0.00 88 1014.9
20260903104623 14 139 1.6 3.2 0.00 0.00 0.00 88 1015.0
20260903104522 14 139 1.6 3.2 0.00 0.00 0.00 88 1015.0
20260903104422 14 139 1.6 3.2 0.00 0.00 0.00 88 1015.0
20260903104322 14 139 1.6 3.2 0.00 0.00 0.00 88 1015.0
20260903104219 14 141 1.6 3.2 0.00 0.00 0.00 88 1015.0
20260903104118 14 141 1.6 3.2 0.00 0.00 0.00 88 1015.0
20260903104018 14 143 1.6 3.2 0.00 0.00 0.00 87 1015.1
20260903103917 14 121 1.6 3.2 0.00 0.00 0.00 88 1015.1
20260903103904 14 110 1.6 3.2 0.00 0.00 0.00 88 1015.0
20260903103816 14 110 1.6 3.2 0.00 0.00 0.00 87 1015.1
20260903103753 14 110 1.6 3.2 0.00 0.00 0.00 87 1015.0
20260903103614 14 110 1.6 3.2 0.00 0.00 0.00 88 1015.1
20260903103512 15 108 1.6 3.2 0.00 0.00 0.00 87 1015.0
20260903103412 15 108 1.6 3.2 0.00 0.00 0.00 88 1015.1
20260903103312 15 108 0.0 3.2 0.00 0.00 0.00 88 1015.0
20260903103212 15 110 0.0 3.2 0.00 0.00 0.00 88 1015.1
20260903103143 15 110 0.0 3.2 0.00 0.00 0.00 88 1015.1
20260903103133 15 132 0.0 1.6 0.00 0.00 0.00 88 1015.0
20260903103113 15 110 0.0 3.2 0.00 0.00 0.00 88 1015.0
20260903103017 15 111 0.0 3.2 0.00 0.00 0.00 88 1015.0
20260903102904 15 132 0.0 1.6 0.00 0.00 0.00 88 1015.1
20260903102801 15 132 0.0 1.6 0.00 0.00 0.00 88 1015.0
20260903102751 15 132 0.0 1.6 0.00 0.00 0.00 88 1015.0
20260903102556 14 132 0.0 1.6 0.00 0.00 0.00 88 1015.0
20260903102457 15 132 0.0 1.6 0.00 0.00 0.00 87 1015.0
20260903102404 15 132 0.0 3.2 0.00 0.00 0.00 87 1015.0
20260903102356 15 132 0.0 1.6 0.00 0.00 0.00 87 1015.0
20260903102255 15 132 0.0 1.6 0.00 0.00 0.00 87 1015.0
20260903102151 15 133 0.0 3.2 0.00 0.00 0.00 87 1015.0
20260903102049 15 132 0.0 3.2 0.00 0.00 0.00 87 1015.0
20260903101946 15 133 0.0 3.2 0.00 0.00 0.00 87 1015.0
20260903101847 15 132 0.0 3.2 0.00 0.00 0.00 87 1015.0
20260903101743 15 139 0.0 3.2 0.00 0.00 0.00 87 1015.0
20260903101645 15 104 0.0 3.2 0.00 0.00 0.00 87 1014.9
20260903101540 15 104 0.0 3.2 0.00 0.00 0.00 87 1015.0
20260903101441 15 104 0.0 3.2 0.00 0.00 0.00 87 1014.9
20260903101339 15 104 0.0 3.2 0.00 0.00 0.00 87 1014.9
20260903101238 15 104 0.0 3.2 0.00 0.00 0.00 87 1014.9
20260903101138 15 132 0.0 1.6 0.00 0.00 0.00 87 1014.9
20260903101033 15 132 0.0 1.6 0.00 0.00 0.00 87 1014.9
20260903100931 15 133 0.0 1.6 0.00 0.00 0.00 87 1014.9
20260903100832 15 132 0.0 1.6 0.00 0.00 0.00 87 1014.9
20260903100732 15 133 0.0 1.6 0.00 0.00 0.00 87 1014.9
20260903100634 15 132 0.0 1.6 0.00 0.00 0.00 87 1014.9
20260903100524 15 132 0.0 1.6 0.00 0.00 0.00 87 1014.9
20260903100424 15 132 0.0 1.6 0.00 0.00 0.00 87 1014.9
20260903100324 15 133 0.0 1.6 0.00 0.00 0.00 87 1014.9
20260903100224 15 133 0.0 3.2 0.00 0.00 0.00 87 1014.9
20260903100126 15 133 0.0 3.2 0.00 0.00 0.00 87 1014.9
20260903100020 15 133 0.0 3.2 0.00 0.00 0.00 87 1014.9
20260903095919 15 132 0.0 3.2 0.00 0.00 0.00 87 1014.9
20260903095837 15 132 0.0 3.2 0.00 0.00 0.00 87 1014.9
20260903095819 15 133 0.0 3.2 0.00 0.00 0.00 87 1014.9
20260903095736 15 133 0.0 3.2 0.00 0.00 0.00 87 1014.9
20260903095723 15 132 0.0 3.2 0.00 0.00 0.00 87 1014.9
20260903095516 15 132 1.6 3.2 0.00 0.00 0.00 87 1014.9
20260903095414 15 132 1.6 3.2 0.00 0.00 0.00 87 1014.9
20260903095312 15 132 0.0 3.2 0.00 0.00 0.00 87 1014.9
20260903095212 15 120 0.0 3.2 0.00 0.00 0.00 87 1014.8
20260903095114 15 138 0.0 3.2 0.00 0.00 0.00 87 1014.9
20260903095008 15 138 0.0 3.2 0.00 0.00 0.00 87 1014.9
20260903094908 15 147 0.0 3.2 0.00 0.00 0.00 87 1014.9
20260903094808 15 146 0.0 3.2 0.00 0.00 0.00 87 1014.9
20260903094707 15 146 0.0 3.2 0.00 0.00 0.00 87 1014.9
20260903094604 15 146 0.0 3.2 0.00 0.00 0.00 87 1015.0
20260903094500 15 135 0.0 1.6 0.00 0.00 0.00 87 1014.9
20260903094358 15 135 0.0 1.6 0.00 0.00 0.00 87 1015.0
20260903094317 15 133 0.0 4.8 0.00 0.00 0.00 87 1015.0
20260903094258 15 136 0.0 1.6 0.00 0.00 0.00 87 1015.0
20260903094213 15 132 0.0 1.6 0.00 0.00 0.00 87 1015.0
20260903094203 15 133 0.0 4.8 0.00 0.00 0.00 87 1015.0
20260903093957 15 131 1.6 4.8 0.00 0.00 0.00 87 1015.0
20260903093855 15 131 1.6 4.8 0.00 0.00 0.00 87 1015.1
20260903093815 15 134 1.6 4.8 0.00 0.00 0.00 87 1015.0
20260903093755 15 131 1.6 4.8 0.00 0.00 0.00 87 1015.0
20260903093711 15 131 1.6 4.8 0.00 0.00 0.00 87 1015.0
20260903093657 15 134 1.6 4.8 0.00 0.00 0.00 87 1015.0
20260903093448 15 134 1.6 6.4 0.00 0.00 0.00 87 1015.0
20260903093345 15 142 1.6 6.4 0.00 0.00 0.00 87 1015.0
20260903093246 15 143 1.6 6.4 0.00 0.00 0.00 87 1015.0
20260903093146 15 219 1.6 6.4 0.00 0.00 0.00 87 1015.0
20260903093046 15 208 1.6 6.4 0.00 0.00 0.00 87 1015.0
20260903092946 15 203 1.6 6.4 0.00 0.00 0.00 87 1015.0
20260903092845 15 167 1.6 6.4 0.00 0.00 0.00 87 1015.0
20260903092744 15 180 1.6 6.4 0.00 0.00 0.00 87 1015.1
20260903092642 15 229 1.6 6.4 0.00 0.00 0.00 87 1015.1
20260903092540 15 215 1.6 4.8 0.00 0.00 0.00 87 1015.1
20260903092436 15 221 1.6 6.4 0.00 0.00 0.00 87 1015.1
20260903092334 15 221 1.6 6.4 0.00 0.00 0.00 87 1015.1
20260903092233 15 226 1.6 6.4 0.00 0.00 0.00 87 1015.2
20260903092135 15 226 1.6 6.4 0.00 0.00 0.00 87 1015.2
20260903092034 15 218 1.6 6.4 0.00 0.00 0.00 87 1015.1
20260903091930 15 219 1.6 6.4 0.00 0.00 0.00 87 1015.2
20260903091828 15 219 1.6 6.4 0.00 0.00 0.00 87 1015.2
20260903091727 15 217 1.6 6.4 0.00 0.00 0.00 87 1015.2
20260903091628 15 216 1.6 6.4 0.00 0.00 0.00 87 1015.2
20260903091541 15 217 1.6 6.4 0.00 0.00 0.00 87 1015.2
20260903091428 15 223 0.0 3.2 0.00 0.00 0.00 87 1015.2
20260903091326 15 224 0.0 3.2 0.00 0.00 0.00 87 1015.3
20260903091226 15 136 0.0 1.6 0.00 0.00 0.00 86 1015.3
20260903091125 15 136 0.0 1.6 0.00 0.00 0.00 86 1015.3
20260903091022 15 136 0.0 1.6 0.00 0.00 0.00 86 1015.3
20260903090916 15 136 0.0 1.6 0.00 0.00 0.00 86 1015.3
20260903090817 15 136 0.0 3.2 0.00 0.00 0.00 86 1015.3
20260903090716 15 136 0.0 3.2 0.00 0.00 0.00 86 1015.3
20260903090617 15 136 0.0 3.2 0.00 0.00 0.00 86 1015.3
20260903090531 15 136 0.0 3.2 0.00 0.00 0.00 86 1015.3
20260903090409 15 135 1.6 3.2 0.00 0.00 0.00 86 1015.3
20260903090310 15 136 1.6 4.8 0.00 0.00 0.00 86 1015.3
20260903090210 15 136 1.6 6.4 0.00 0.00 0.00 86 1015.3
20260903090113 15 135 1.6 6.4 0.00 0.00 0.00 86 1015.3
20260903090015 15 136 1.6 6.4 0.00 0.00 0.00 86 1015.3
20260903090010 15 135 1.6 6.4 0.00 0.00 0.00 86 1015.3
20260903085908 15 136 3.2 6.4 0.00 0.00 0.00 86 1015.3
20260903085829 15 129 1.6 6.4 0.00 0.00 0.00 85 1015.3
20260903085808 15 174 1.6 6.4 0.00 0.00 0.00 85 1015.3
20260903085739 15 129 1.6 6.4 0.00 0.00 0.00 85 1015.3
20260903085735 15 136 1.6 6.4 0.00 0.00 0.00 85 1015.3
20260903085724 15 129 1.6 6.4 0.00 0.00 0.00 85 1015.3
20260903085358 15 121 1.6 6.4 0.00 0.00 0.00 85 1015.3
20260903085258 15 148 1.6 6.4 0.00 0.00 0.00 85 1015.4
20260903085158 15 114 1.6 4.8 0.00 0.00 0.00 85 1015.4
20260903085058 15 132 1.6 4.8 0.00 0.00 0.00 85 1015.4
20260903085009 15 150 1.6 3.2 0.00 0.00 0.00 85 1015.3
20260903084957 15 146 1.6 3.2 0.00 0.00 0.00 85 1015.3
20260903084856 15 143 1.6 4.8 0.00 0.00 0.00 85 1015.4
20260903084757 15 205 1.6 4.8 0.00 0.00 0.00 85 1015.3
20260903084657 15 205 1.6 4.8 0.00 0.00 0.00 85 1015.4
20260903084601 15 205 1.6 4.8 0.00 0.00 0.00 85 1015.4
20260903084509 15 206 1.6 4.8 0.00 0.00 0.00 85 1015.4
20260903084452 15 206 1.6 4.8 0.00 0.00 0.00 85 1015.4
20260903084353 15 205 1.6 4.8 0.00 0.00 0.00 85 1015.4
20260903084300 15 193 1.6 4.8 0.00 0.00 0.00 85 1015.3
20260903084258 15 205 1.6 4.8 0.00 0.00 0.00 85 1015.4
20260903084221 15 193 1.6 4.8 0.00 0.00 0.00 85 1015.3
20260903084008 15 193 1.6 4.8 0.00 0.00 0.00 85 1015.3
20260903083943 15 194 1.6 4.8 0.00 0.00 0.00 85 1015.3
20260903083841 15 193 1.6 4.8 0.00 0.00 0.00 84 1015.3
20260903083743 15 176 1.6 4.8 0.00 0.00 0.00 84 1015.4
20260903083735 15 211 1.6 4.8 0.00 0.00 0.00 84 1015.3
20260903083641 15 148 1.6 4.8 0.00 0.00 0.00 84 1015.3
20260903083539 15 195 1.6 4.8 0.00 0.00 0.00 84 1015.4
20260903083437 15 226 1.6 4.8 0.00 0.00 0.00 84 1015.3
20260903083334 15 224 1.6 8.0 0.00 0.00 0.00 84 1015.4
20260903083240 15 216 3.2 8.0 0.00 0.00 0.00 84 1015.4
20260903083234 15 239 3.2 8.0 0.00 0.00 0.00 84 1015.4
20260903083134 15 215 3.2 8.0 0.00 0.00 0.00 84 1015.4
20260903083120 15 215 3.2 8.0 0.00 0.00 0.00 84 1015.3
20260903082929 15 221 3.2 8.0 0.00 0.00 0.00 84 1015.4
20260903082824 15 170 3.2 8.0 0.00 0.00 0.00 84 1015.4
20260903082724 15 138 3.2 8.0 0.00 0.00 0.00 84 1015.4
20260903082634 15 232 3.2 8.0 0.00 0.00 0.00 84 1015.4
20260903082607 15 224 1.6 9.7 0.00 0.00 0.00 84 1015.4
20260903082522 15 228 3.2 8.0 0.00 0.00 0.00 84 1015.4
20260903082509 15 226 3.2 8.0 0.00 0.00 0.00 84 1015.4
20260903082454 15 229 3.2 9.7 0.00 0.00 0.00 84 1015.4
20260903082320 15 222 1.6 9.7 0.00 0.00 0.00 84 1015.4
20260903082247 15 211 1.6 9.7 0.00 0.00 0.00 84 1015.4
20260903082240 15 236 1.6 9.7 0.00 0.00 0.00 84 1015.4
20260903082232 15 224 1.6 9.7 0.00 0.00 0.00 84 1015.4
20260903082224 15 224 1.6 9.7 0.00 0.00 0.00 84 1015.4
20260903081914 15 207 1.6 9.7 0.00 0.00 0.00 84 1015.4
20260903081808 16 250 1.6 9.7 0.00 0.00 0.00 84 1015.4
20260903081708 15 217 1.6 9.7 0.00 0.00 0.00 84 1015.4
20260903081612 16 217 1.6 9.7 0.00 0.00 0.00 84 1015.4
20260903081522 15 211 1.6 9.7 0.00 0.00 0.00 84 1015.4
20260903081508 15 219 1.6 9.7 0.00 0.00 0.00 84 1015.4
20260903081407 16 186 3.2 4.8 0.00 0.00 0.00 84 1015.4
20260903081304 16 186 3.2 6.4 0.00 0.00 0.00 84 1015.4
20260903081203 16 186 3.2 6.4 0.00 0.00 0.00 84 1015.4
20260903081104 16 186 3.2 8.0 0.00 0.00 0.00 84 1015.4
20260903081008 16 235 3.2 8.0 0.00 0.00 0.00 84 1015.3
20260903081002 16 235 3.2 8.0 0.00 0.00 0.00 84 1015.3
20260903080859 16 193 3.2 8.0 0.00 0.00 0.00 84 1015.3
20260903080757 16 208 3.2 8.0 0.00 0.00 0.00 84 1015.4
20260903080658 16 212 3.2 8.0 0.00 0.00 0.00 84 1015.3
20260903080559 16 196 3.2 8.0 0.00 0.00 0.00 84 1015.3
20260903080509 16 195 3.2 8.0 0.00 0.00 0.00 84 1015.3
20260903080458 16 195 3.2 8.0 0.00 0.00 0.00 84 1015.3
20260903080357 16 222 3.2 8.0 0.00 0.00 0.00 84 1015.3
20260903080256 16 200 3.2 8.0 0.00 0.00 0.00 84 1015.2
20260903080157 16 239 3.2 8.0 0.00 0.00 0.00 84 1015.2
20260903080056 16 166 3.2 8.0 0.00 0.00 0.00 84 1015.3
20260903080009 16 165 3.2 8.0 0.00 0.00 0.00 84 1015.3
20260903075956 16 203 3.2 8.0 0.00 0.00 0.00 84 1015.3
20260903075856 16 231 3.2 12.9 0.00 0.00 0.00 84 1015.2
20260903075754 16 191 3.2 12.9 0.00 0.00 0.00 84 1015.2
20260903075731 16 231 3.2 12.9 0.00 0.00 0.00 84 1015.2
20260903075654 16 200 3.2 12.9 0.00 0.00 0.00 84 1015.2
20260903075620 16 230 3.2 12.9 0.00 0.00 0.00 84 1015.2
20260903075452 16 203 3.2 12.9 0.00 0.00 0.00 84 1015.2
20260903075349 16 232 3.2 12.9 0.00 0.00 0.00 84 1015.2
20260903075250 16 232 3.2 12.9 0.00 0.00 0.00 83 1015.2
20260903075230 16 214 3.2 12.9 0.00 0.00 0.00 83 1015.2
20260903075146 16 217 3.2 12.9 0.00 0.00 0.00 84 1015.2
20260903075121 16 191 3.2 12.9 0.00 0.00 0.00 84 1015.2
20260903074942 16 236 3.2 12.9 0.00 0.00 0.00 83 1015.2
20260903074842 16 198 1.6 9.7 0.00 0.00 0.00 83 1015.2
20260903074740 16 174 1.6 9.7 0.00 0.00 0.00 83 1015.3
20260903074640 16 204 1.6 9.7 0.00 0.00 0.00 83 1015.3
20260903074540 16 230 1.6 9.7 0.00 0.00 0.00 83 1015.2
20260903074502 16 217 1.6 9.7 0.00 0.00 0.00 83 1015.3
20260903074440 16 215 1.6 8.0 0.00 0.00 0.00 83 1015.3
20260903074340 16 257 1.6 8.0 0.00 0.00 0.00 83 1015.2
20260903074239 16 161 1.6 9.7 0.00 0.00 0.00 83 1015.2
20260903074140 16 223 3.2 9.7 0.00 0.00 0.00 83 1015.2
20260903074039 16 163 3.2 9.7 0.00 0.00 0.00 83 1015.2
20260903073955 16 182 3.2 9.7 0.00 0.00 0.00 83 1015.2
20260903073938 16 231 3.2 9.7 0.00 0.00 0.00 83 1015.2
20260903073838 16 210 3.2 9.7 0.00 0.00 0.00 83 1015.3
20260903073736 16 210 3.2 9.7 0.00 0.00 0.00 83 1015.3
20260903073633 16 210 3.2 9.7 0.00 0.00 0.00 83 1015.3
20260903073530 16 203 3.2 9.7 0.00 0.00 0.00 83 1015.3
20260903073448 16 114 4.8 9.7 0.00 0.00 0.00 83 1015.3
20260903073428 16 226 4.8 9.7 0.00 0.00 0.00 83 1015.3
20260903073328 16 214 4.8 9.7 0.00 0.00 0.00 83 1015.2
20260903073229 16 228 3.2 9.7 0.00 0.00 0.00 83 1015.2
20260903073127 16 238 3.2 9.7 0.00 0.00 0.00 82 1015.3
20260903073024 16 226 3.2 9.7 0.00 0.00 0.00 82 1015.2
20260903072942 16 229 3.2 9.7 0.00 0.00 0.00 82 1015.2
20260903072922 16 225 3.2 9.7 0.00 0.00 0.00 82 1015.2
20260903072821 16 251 4.8 9.7 0.00 0.00 0.00 82 1015.2
20260903072722 16 231 4.8 11.3 0.00 0.00 0.00 82 1015.2
20260903072622 16 253 4.8 11.3 0.00 0.00 0.00 82 1015.2
20260903072516 16 212 4.8 11.3 0.00 0.00 0.00 82 1015.1
20260903072436 16 212 4.8 11.3 0.00 0.00 0.00 82 1015.2
20260903072416 16 216 4.8 11.3 0.00 0.00 0.00 82 1015.1
20260903072316 16 243 4.8 11.3 0.00 0.00 0.00 82 1015.1
20260903072216 16 250 6.4 12.9 0.00 0.00 0.00 82 1015.1
20260903072116 16 305 6.4 16.1 0.00 0.00 0.00 82 1015.1
20260903072012 16 241 6.4 16.1 0.00 0.00 0.00 82 1015.1
20260903071935 16 200 6.4 16.1 0.00 0.00 0.00 82 1015.1
20260903071912 16 256 8.0 16.1 0.00 0.00 0.00 82 1015.1
20260903071812 16 200 8.0 16.1 0.00 0.00 0.00 82 1015.2
20260903071712 16 229 8.0 16.1 0.00 0.00 0.00 82 1015.1
20260903071615 16 204 6.4 16.1 0.00 0.00 0.00 82 1015.1
20260903071506 16 226 6.4 16.1 0.00 0.00 0.00 82 1015.1
20260903071434 16 212 6.4 16.1 0.00 0.00 0.00 82 1015.1
20260903071405 16 248 6.4 16.1 0.00 0.00 0.00 82 1015.1
20260903071306 16 240 6.4 16.1 0.00 0.00 0.00 82 1015.1
20260903071206 16 237 6.4 16.1 0.00 0.00 0.00 82 1015.1
20260903071109 16 248 6.4 16.1 0.00 0.00 0.00 82 1015.2
20260903071006 16 238 6.4 14.5 0.00 0.00 0.00 81 1015.2
20260903070935 16 229 6.4 14.5 0.00 0.00 0.00 81 1015.2
20260903070906 16 195 6.4 14.5 0.00 0.00 0.00 81 1015.2
20260903070806 16 248 6.4 14.5 0.00 0.00 0.00 81 1015.2
20260903070704 16 232 6.4 12.9 0.00 0.00 0.00 81 1015.2
20260903070614 16 211 6.4 12.9 0.00 0.00 0.00 81 1015.2
20260903070504 16 240 6.4 12.9 0.00 0.00 0.00 81 1015.2
20260903070434 16 210 6.4 12.9 0.00 0.00 0.00 81 1015.2
20260903070405 16 242 6.4 12.9 0.00 0.00 0.00 81 1015.2
20260903070304 16 218 6.4 12.9 0.00 0.00 0.00 81 1015.2
20260903070203 16 253 6.4 12.9 0.00 0.00 0.00 81 1015.2
20260903070100 16 211 6.4 12.9 0.00 0.00 0.00 81 1015.2
20260903070000 16 248 6.4 12.9 0.00 0.00 0.00 81 1015.1
20260903065935 16 195 6.4 12.9 0.00 0.00 0.00 81 1015.1
20260903065900 16 256 6.4 12.9 0.00 0.00 0.00 81 1015.1
20260903065800 16 221 6.4 12.9 0.00 0.00 0.00 81 1015.2
20260903065700 16 205 6.4 12.9 0.00 0.00 0.00 81 1015.1
20260903065558 16 165 6.4 12.9 0.00 0.00 0.00 80 1015.0
20260903065457 16 219 6.4 11.3 0.00 0.00 0.00 80 1015.1
20260903065434 16 246 6.4 9.7 0.00 0.00 0.00 80 1015.1
20260903065356 16 208 6.4 9.7 0.00 0.00 0.00 80 1015.1
20260903065254 16 233 6.4 9.7 0.00 0.00 0.00 80 1015.1
20260903065155 16 219 6.4 9.7 0.00 0.00 0.00 80 1015.1
20260903065054 16 231 4.8 9.7 0.00 0.00 0.00 80 1015.1
20260903064954 16 219 4.8 9.7 0.00 0.00 0.00 80 1015.1
20260903064933 16 212 4.8 9.7 0.00 0.00 0.00 80 1015.1
20260903064855 16 235 4.8 9.7 0.00 0.00 0.00 80 1015.1
20260903064754 16 200 4.8 9.7 0.00 0.00 0.00 79 1015.1
20260903064700 16 214 4.8 12.9 0.00 0.00 0.00 79 1015.0
20260903064654 16 262 4.8 12.9 0.00 0.00 0.00 79 1015.0
20260903064553 16 211 4.8 12.9 0.00 0.00 0.00 79 1015.1
20260903064544 16 229 4.8 12.9 0.00 0.00 0.00 79 1015.0
20260903064354 16 248 4.8 12.9 0.00 0.00 0.00 79 1015.1
20260903064254 16 256 4.8 12.9 0.00 0.00 0.00 79 1015.0
20260903064154 16 232 4.8 12.9 0.00 0.00 0.00 79 1015.1
20260903064048 16 231 4.8 12.9 0.00 0.00 0.00 79 1015.0
20260903063949 17 219 4.8 12.9 0.00 0.00 0.00 78 1015.0
20260903063933 17 226 4.8 12.9 0.00 0.00 0.00 78 1015.0
20260903063848 17 193 4.8 12.9 0.00 0.00 0.00 78 1015.0
20260903063748 17 235 4.8 12.9 0.00 0.00 0.00 78 1015.0
20260903063648 17 204 4.8 11.3 0.00 0.00 0.00 78 1015.0
20260903063548 17 228 4.8 11.3 0.00 0.00 0.00 78 1015.1
20260903063448 17 236 4.8 11.3 0.00 0.00 0.00 78 1015.1
20260903063433 17 235 4.8 11.3 0.00 0.00 0.00 78 1015.1
20260903063347 17 240 4.8 11.3 0.00 0.00 0.00 78 1015.0
20260903063248 17 251 4.8 11.3 0.00 0.00 0.00 78 1015.0
20260903063148 17 269 4.8 11.3 0.00 0.00 0.00 78 1015.0
20260903063047 17 245 4.8 11.3 0.00 0.00 0.00 78 1015.1
20260903062948 17 224 4.8 11.3 0.00 0.00 0.00 78 1015.0
20260903062933 17 211 4.8 11.3 0.00 0.00 0.00 78 1015.0
20260903062844 17 234 4.8 11.3 0.00 0.00 0.00 78 1015.0
20260903062745 17 233 4.8 11.3 0.00 0.00 0.00 77 1015.0
20260903062645 17 229 4.8 11.3 0.00 0.00 0.00 77 1015.0
20260903062544 17 235 4.8 11.3 0.00 0.00 0.00 77 1015.0
20260903062444 17 248 4.8 11.3 0.00 0.00 0.00 77 1015.0
20260903062433 17 222 4.8 11.3 0.00 0.00 0.00 77 1015.0
20260903062344 17 243 4.8 11.3 0.00 0.00 0.00 77 1015.0
20260903062244 17 240 4.8 11.3 0.00 0.00 0.00 77 1015.0
20260903062145 17 225 4.8 11.3 0.00 0.00 0.00 77 1015.0
20260903062044 17 226 4.8 11.3 0.00 0.00 0.00 77 1015.0
20260903061945 17 242 4.8 11.3 0.00 0.00 0.00 77 1015.0
20260903061929 17 226 4.8 11.3 0.00 0.00 0.00 77 1015.0
20260903061845 17 218 4.8 11.3 0.00 0.00 0.00 77 1015.0
20260903061744 17 231 4.8 11.3 0.00 0.00 0.00 77 1015.0
20260903061645 17 235 4.8 11.3 0.00 0.00 0.00 77 1015.0
20260903061544 17 235 4.8 11.3 0.00 0.00 0.00 77 1015.0
20260903061429 17 235 4.8 11.3 0.00 0.00 0.00 77 1015.0
20260903061345 17 236 4.8 11.3 0.00 0.00 0.00 77 1015.0
20260903061244 17 229 4.8 11.3 0.00 0.00 0.00 77 1015.0
20260903061145 17 256 4.8 9.7 0.00 0.00 0.00 77 1015.0
20260903061045 17 236 4.8 9.7 0.00 0.00 0.00 76 1015.0
20260903060944 17 231 4.8 9.7 0.00 0.00 0.00 76 1015.0
20260903060930 17 238 4.8 9.7 0.00 0.00 0.00 76 1015.0
20260903060844 17 236 4.8 9.7 0.00 0.00 0.00 76 1015.0
20260903060744 17 229 4.8 9.7 0.00 0.00 0.00 76 1015.0
20260903060645 17 235 3.2 9.7 0.00 0.00 0.00 76 1015.0
20260903060544 17 238 4.8 9.7 0.00 0.00 0.00 76 1015.0
20260903060442 17 246 4.8 9.7 0.00 0.00 0.00 76 1015.0
20260903060427 17 233 4.8 9.7 0.00 0.00 0.00 76 1015.0
20260903060342 17 235 3.2 9.7 0.00 0.00 0.00 76 1015.0
20260903060242 17 233 3.2 9.7 0.00 0.00 0.00 75 1015.0
20260903060143 17 233 3.2 9.7 0.00 0.00 0.00 75 1015.1
20260903060042 17 235 3.2 9.7 0.00 0.00 0.00 75 1015.0
20260903055927 17 238 3.2 9.7 0.00 0.00 0.00 75 1015.0
20260903055840 17 238 3.2 9.7 0.00 0.00 0.00 75 1015.1
20260903055740 17 166 3.2 9.7 0.00 0.00 0.00 75 1015.0
20260903055651 17 208 3.2 9.7 0.00 0.00 0.00 74 1015.0
20260903055640 17 229 3.2 9.7 0.00 0.00 0.00 75 1015.1
20260903055547 17 236 3.2 9.7 0.00 0.00 0.00 74 1015.1
20260903055538 17 203 3.2 9.7 0.00 0.00 0.00 74 1015.0
20260903055338 17 212 3.2 9.7 0.00 0.00 0.00 74 1015.1
20260903055238 17 232 3.2 9.7 0.00 0.00 0.00 74 1015.1
20260903055137 17 240 3.2 9.7 0.00 0.00 0.00 74 1015.0
20260903055036 17 232 3.2 9.7 0.00 0.00 0.00 74 1015.0
20260903054936 17 242 3.2 9.7 0.00 0.00 0.00 74 1015.0
20260903054925 17 236 3.2 9.7 0.00 0.00 0.00 74 1015.0
20260903054836 17 146 3.2 9.7 0.00 0.00 0.00 74 1015.0
20260903054737 17 231 3.2 12.9 0.00 0.00 0.00 74 1015.0
20260903054638 17 226 3.2 12.9 0.00 0.00 0.00 74 1015.0
20260903054536 17 237 3.2 12.9 0.00 0.00 0.00 73 1014.9
20260903054436 17 211 3.2 12.9 0.00 0.00 0.00 73 1015.0
20260903054426 17 203 3.2 12.9 0.00 0.00 0.00 73 1015.0
20260903054336 17 153 3.2 12.9 0.00 0.00 0.00 73 1015.0
20260903054237 17 256 3.2 12.9 0.00 0.00 0.00 73 1015.0
20260903054136 18 256 3.2 12.9 0.00 0.00 0.00 73 1015.0
20260903054036 18 263 3.2 12.9 0.00 0.00 0.00 73 1015.0
20260903054026 18 232 4.8 16.1 0.00 0.00 0.00 72 1015.0
20260903054020 18 234 4.8 14.5 0.00 0.00 0.00 72 1015.0
20260903054016 18 233 3.2 12.9 0.00 0.00 0.00 73 1015.0
20260903054006 18 229 3.2 12.9 0.00 0.00 0.00 73 1015.0
20260903053856 18 229 4.8 14.5 0.00 0.00 0.00 73 1015.0
20260903053743 18 210 4.8 14.5 0.00 0.00 0.00 72 1015.0
20260903053541 18 233 4.8 16.1 0.00 0.00 0.00 72 1015.0
20260903053532 18 233 4.8 16.1 0.00 0.00 0.00 72 1015.0
20260903053326 18 221 4.8 16.1 0.00 0.00 0.00 72 1015.0
20260903053226 18 239 4.8 16.1 0.00 0.00 0.00 72 1014.9
20260903053127 18 266 4.8 16.1 0.00 0.00 0.00 72 1014.9
20260903053026 18 223 4.8 16.1 0.00 0.00 0.00 71 1015.0
20260903052931 18 228 6.4 16.1 0.00 0.00 0.00 71 1015.0
20260903052920 18 225 6.4 16.1 0.00 0.00 0.00 71 1015.0
20260903052839 18 253 6.4 16.1 0.00 0.00 0.00 71 1014.9
20260903052835 18 218 6.4 16.1 0.00 0.00 0.00 71 1014.9
20260903052627 18 239 6.4 16.1 0.00 0.00 0.00 71 1015.0
20260903052526 18 222 4.8 16.1 0.00 0.00 0.00 71 1015.0
20260903052446 18 259 6.4 19.3 0.00 0.00 0.00 70 1015.0
20260903052432 18 263 6.4 19.3 0.00 0.00 0.00 71 1015.0
20260903052226 18 239 4.8 19.3 0.00 0.00 0.00 70 1015.0
20260903052135 18 288 6.4 19.3 0.00 0.00 0.00 70 1015.0
20260903052123 18 238 4.8 19.3 0.00 0.00 0.00 70 1015.0
20260903052022 18 246 6.4 19.3 0.00 0.00 0.00 70 1015.0
20260903051927 18 270 6.4 19.3 0.00 0.00 0.00 70 1015.0
20260903051820 18 250 4.8 19.3 0.00 0.00 0.00 70 1015.0
20260903051720 18 224 4.8 19.3 0.00 0.00 0.00 69 1014.9
20260903051621 18 233 4.8 19.3 0.00 0.00 0.00 69 1015.0
20260903051520 18 249 4.8 19.3 0.00 0.00 0.00 69 1015.0
20260903051437 18 233 4.8 14.5 0.00 0.00 0.00 69 1014.9
20260903051426 18 225 4.8 14.5 0.00 0.00 0.00 69 1014.9
20260903051320 18 248 4.8 14.5 0.00 0.00 0.00 68 1014.9
20260903051221 18 257 4.8 14.5 0.00 0.00 0.00 68 1015.0
20260903051120 18 250 4.8 14.5 0.00 0.00 0.00 68 1015.0
20260903051020 18 263 4.8 14.5 0.00 0.00 0.00 68 1015.0
20260903050924 18 267 4.8 14.5 0.00 0.00 0.00 68 1015.0
20260903050913 18 212 4.8 14.5 0.00 0.00 0.00 68 1015.0
20260903050820 18 253 4.8 14.5 0.00 0.00 0.00 67 1015.0
20260903050733 18 236 4.8 12.9 0.00 0.00 0.00 67 1015.0
20260903050635 18 211 4.8 16.1 0.00 0.00 0.00 67 1015.0
20260903050621 18 280 4.8 16.1 0.00 0.00 0.00 67 1015.0
20260903050521 18 283 4.8 16.1 0.00 0.00 0.00 67 1015.1
20260903050426 18 250 4.8 16.1 0.00 0.00 0.00 67 1015.0
20260903050419 18 211 4.8 16.1 0.00 0.00 0.00 67 1015.0
20260903050318 18 219 6.4 16.1 0.00 0.00 0.00 67 1015.0
20260903050218 18 225 6.4 16.1 0.00 0.00 0.00 66 1015.0
20260903050118 18 223 6.4 16.1 0.00 0.00 0.00 66 1015.0
20260903050018 18 240 6.4 16.1 0.00 0.00 0.00 66 1015.0
20260903045924 18 248 6.4 16.1 0.00 0.00 0.00 66 1015.0
20260903045913 18 240 6.4 16.1 0.00 0.00 0.00 66 1015.0
20260903045858 19 253 6.4 16.1 0.00 0.00 0.00 65 1015.0
20260903045818 19 246 6.4 16.1 0.00 0.00 0.00 66 1015.1
20260903045718 19 269 6.4 16.1 0.00 0.00 0.00 66 1015.0
20260903045643 19 253 6.4 16.1 0.00 0.00 0.00 65 1015.0
20260903045619 19 260 6.4 16.1 0.00 0.00 0.00 66 1015.0
20260903045518 19 253 6.4 16.1 0.00 0.00 0.00 65 1015.0
20260903045454 19 253 6.4 16.1 0.00 0.00 0.00 65 1015.0
20260903045322 19 267 4.8 16.1 0.00 0.00 0.00 65 1015.0
20260903045219 19 224 4.8 16.1 0.00 0.00 0.00 65 1015.0
20260903045149 19 263 4.8 16.1 0.00 0.00 0.00 65 1015.0
20260903045119 19 228 4.8 16.1 0.00 0.00 0.00 65 1015.0
20260903045013 19 256 4.8 16.1 0.00 0.00 0.00 65 1015.0
20260903044923 19 263 4.8 16.1 0.00 0.00 0.00 65 1015.0
20260903044912 19 236 4.8 16.1 0.00 0.00 0.00 65 1015.0
20260903044812 19 228 4.8 16.1 0.00 0.00 0.00 65 1015.0
20260903044712 19 230 4.8 16.1 0.00 0.00 0.00 65 1015.0
20260903044613 19 266 4.8 16.1 0.00 0.00 0.00 65 1015.0
20260903044512 19 200 4.8 16.1 0.00 0.00 0.00 65 1015.0
20260903044418 19 284 4.8 16.1 0.00 0.00 0.00 64 1014.9
20260903044412 19 282 4.8 16.1 0.00 0.00 0.00 64 1014.9
20260903044312 19 228 3.2 16.1 0.00 0.00 0.00 64 1015.0
20260903044226 19 208 4.8 12.9 0.00 0.00 0.00 64 1014.9
20260903044222 19 266 4.8 11.3 0.00 0.00 0.00 64 1014.9
20260903044012 19 228 4.8 12.9 0.00 0.00 0.00 64 1014.9
20260903043920 19 250 4.8 12.9 0.00 0.00 0.00 64 1014.8
20260903043912 19 257 4.8 12.9 0.00 0.00 0.00 64 1014.8
20260903043813 19 235 4.8 12.9 0.00 0.00 0.00 64 1014.9
20260903043712 19 240 4.8 12.9 0.00 0.00 0.00 64 1014.9
20260903043613 19 248 4.8 16.1 0.00 0.00 0.00 64 1014.9
20260903043513 20 232 4.8 16.1 0.00 0.00 0.00 64 1014.9
20260903043418 20 259 4.8 16.1 0.00 0.00 0.00 64 1014.9
20260903043412 20 260 6.4 16.1 0.00 0.00 0.00 64 1014.9
20260903043313 20 236 6.4 16.1 0.00 0.00 0.00 64 1014.8
20260903043210 20 250 6.4 16.1 0.00 0.00 0.00 64 1014.8
20260903043111 20 253 6.4 16.1 0.00 0.00 0.00 64 1014.9
20260903043010 20 259 6.4 16.1 0.00 0.00 0.00 64 1014.9
20260903042916 20 259 6.4 16.1 0.00 0.00 0.00 64 1014.9
20260903042910 20 260 6.4 16.1 0.00 0.00 0.00 64 1014.9
20260903042810 20 281 8.0 16.1 0.00 0.00 0.00 64 1014.9
20260903042710 20 264 6.4 16.1 0.00 0.00 0.00 64 1014.9
20260903042612 20 273 6.4 16.1 0.00 0.00 0.00 64 1014.9
20260903042510 20 256 6.4 16.1 0.00 0.00 0.00 64 1015.0
20260903042428 20 257 6.4 16.1 0.00 0.00 0.00 63 1015.0
20260903042410 20 253 6.4 16.1 0.00 0.00 0.00 63 1014.9
20260903042310 20 218 6.4 14.5 0.00 0.00 0.00 63 1015.0
20260903042210 20 236 6.4 14.5 0.00 0.00 0.00 63 1015.0
20260903042111 20 236 6.4 14.5 0.00 0.00 0.00 63 1014.9
20260903042010 20 255 6.4 14.5 0.00 0.00 0.00 63 1015.0
20260903041916 20 241 6.4 14.5 0.00 0.00 0.00 63 1015.0
20260903041911 20 240 6.4 14.5 0.00 0.00 0.00 63 1014.9
20260903041810 20 245 6.4 14.5 0.00 0.00 0.00 63 1014.9
20260903041710 20 214 6.4 14.5 0.00 0.00 0.00 63 1014.9
20260903041610 20 256 6.4 14.5 0.00 0.00 0.00 63 1014.9
20260903041511 20 239 6.4 14.5 0.00 0.00 0.00 63 1014.9
20260903041426 20 232 6.4 14.5 0.00 0.00 0.00 63 1014.9
20260903041408 20 215 6.4 14.5 0.00 0.00 0.00 63 1014.9
20260903041308 20 226 6.4 14.5 0.00 0.00 0.00 63 1014.9
20260903041209 20 239 6.4 14.5 0.00 0.00 0.00 63 1014.9
20260903041110 20 246 6.4 14.5 0.00 0.00 0.00 63 1014.9
20260903041008 20 228 6.4 14.5 0.00 0.00 0.00 63 1014.8
20260903040913 20 242 6.4 14.5 0.00 0.00 0.00 63 1014.8
20260903040908 20 236 6.4 14.5 0.00 0.00 0.00 63 1014.8
20260903040808 20 201 6.4 14.5 0.00 0.00 0.00 63 1014.8
20260903040708 20 218 4.8 14.5 0.00 0.00 0.00 63 1014.7
20260903040642 20 245 4.8 14.5 0.00 0.00 0.00 63 1014.7
20260903040611 20 264 4.8 14.5 0.00 0.00 0.00 63 1014.8
20260903040532 20 238 4.8 14.5 0.00 0.00 0.00 63 1014.7
20260903040409 20 253 4.8 14.5 0.00 0.00 0.00 63 1014.7
20260903040309 20 256 4.8 12.9 0.00 0.00 0.00 62 1014.7
20260903040208 20 222 4.8 12.9 0.00 0.00 0.00 62 1014.7
20260903040109 20 217 4.8 12.9 0.00 0.00 0.00 62 1014.7
20260903040003 20 210 4.8 11.3 0.00 0.00 0.00 63 1014.7
20260903035913 20 269 4.8 11.3 0.00 0.00 0.00 63 1014.7
20260903035903 20 226 4.8 11.3 0.00 0.00 0.00 63 1014.7
20260903035800 20 255 4.8 11.3 0.00 0.00 0.00 62 1014.6
20260903035700 20 239 4.8 11.3 0.00 0.00 0.00 62 1014.6
20260903035605 20 250 4.8 12.9 0.00 0.00 0.00 62 1014.6
20260903035500 20 256 4.8 12.9 0.00 0.00 0.00 62 1014.6
20260903035414 20 212 4.8 12.9 0.00 0.00 0.00 62 1014.6
20260903035400 20 193 4.8 12.9 0.00 0.00 0.00 62 1014.6
20260903035300 20 239 4.8 16.1 0.00 0.00 0.00 62 1014.6
20260903035200 20 239 4.8 16.1 0.00 0.00 0.00 62 1014.5
20260903035112 21 257 4.8 16.1 0.00 0.00 0.00 62 1014.5
20260903035108 21 274 4.8 16.1 0.00 0.00 0.00 62 1014.5
20260903034911 21 243 4.8 16.1 0.00 0.00 0.00 62 1014.4
20260903034858 21 232 4.8 16.1 0.00 0.00 0.00 62 1014.4
20260903034758 21 250 4.8 16.1 0.00 0.00 0.00 62 1014.5
20260903034658 21 232 4.8 16.1 0.00 0.00 0.00 62 1014.4
20260903034558 21 233 4.8 16.1 0.00 0.00 0.00 62 1014.5
20260903034456 21 280 4.8 16.1 0.00 0.00 0.00 61 1014.4
20260903034408 21 235 4.8 16.1 0.00 0.00 0.00 61 1014.4
20260903034402 21 238 3.2 12.9 0.00 0.00 0.00 61 1014.4
20260903034356 21 221 4.8 16.1 0.00 0.00 0.00 61 1014.4
20260903034256 21 239 4.8 12.9 0.00 0.00 0.00 61 1014.4
20260903034246 21 232 3.2 12.9 0.00 0.00 0.00 61 1014.3
20260903034054 21 263 3.2 12.9 0.00 0.00 0.00 61 1014.3
20260903034018 21 262 3.2 12.9 0.00 0.00 0.00 61 1014.4
20260903033854 21 246 3.2 12.9 0.00 0.00 0.00 61 1014.4
20260903033752 21 241 3.2 12.9 0.00 0.00 0.00 61 1014.3
20260903033653 21 222 3.2 12.9 0.00 0.00 0.00 61 1014.2
20260903033552 21 230 1.6 12.9 0.00 0.00 0.00 61 1014.3
20260903033452 21 243 1.6 8.0 0.00 0.00 0.00 61 1014.3
20260903033408 21 246 1.6 8.0 0.00 0.00 0.00 61 1014.2
20260903033355 21 253 1.6 8.0 0.00 0.00 0.00 61 1014.2
20260903033346 21 229 1.6 9.7 0.00 0.00 0.00 60 1014.2
20260903033252 21 231 1.6 8.0 0.00 0.00 0.00 60 1014.2
20260903033238 21 225 1.6 8.0 0.00 0.00 0.00 60 1014.2
20260903033049 21 256 1.6 8.0 0.00 0.00 0.00 60 1014.2
20260903033019 21 250 1.6 8.0 0.00 0.00 0.00 60 1014.2
20260903032846 21 235 1.6 9.7 0.00 0.00 0.00 60 1014.2
20260903032747 21 239 1.6 9.7 0.00 0.00 0.00 60 1014.2
20260903032647 21 204 1.6 9.7 0.00 0.00 0.00 60 1014.2
20260903032551 21 204 1.6 9.7 0.00 0.00 0.00 59 1014.1
20260903032444 21 246 1.6 9.7 0.00 0.00 0.00 59 1014.1
20260903032407 21 246 1.6 9.7 0.00 0.00 0.00 59 1014.1
20260903032344 21 245 1.6 9.7 0.00 0.00 0.00 59 1014.1
20260903032244 21 228 3.2 9.7 0.00 0.00 0.00 59 1014.1
20260903032145 21 242 3.2 9.7 0.00 0.00 0.00 59 1014.2
20260903032044 21 241 3.2 9.7 0.00 0.00 0.00 59 1014.1
20260903031945 21 238 3.2 9.7 0.00 0.00 0.00 59 1014.1
20260903031918 21 248 3.2 9.7 0.00 0.00 0.00 59 1014.1
20260903031844 21 267 3.2 9.7 0.00 0.00 0.00 59 1014.1
20260903031744 21 233 3.2 9.7 0.00 0.00 0.00 58 1014.1
20260903031645 21 232 3.2 9.7 0.00 0.00 0.00 58 1014.1
20260903031542 21 269 3.2 9.7 0.00 0.00 0.00 58 1014.0
20260903031442 21 290 3.2 8.0 0.00 0.00 0.00 58 1014.1
20260903031405 21 250 3.2 8.0 0.00 0.00 0.00 58 1014.0
20260903031342 21 233 3.2 8.0 0.00 0.00 0.00 58 1014.0
20260903031240 21 228 1.6 8.0 0.00 0.00 0.00 58 1014.0
20260903031140 21 257 1.6 6.4 0.00 0.00 0.00 57 1014.1
20260903031040 21 230 1.6 9.7 0.00 0.00 0.00 57 1014.0
20260903030940 21 246 1.6 9.7 0.00 0.00 0.00 57 1014.0
20260903030905 21 248 3.2 9.7 0.00 0.00 0.00 57 1014.0
20260903030840 21 246 3.2 9.7 0.00 0.00 0.00 57 1014.0
20260903030740 21 235 3.2 9.7 0.00 0.00 0.00 57 1014.0
20260903030642 21 266 3.2 9.7 0.00 0.00 0.00 56 1014.0
20260903030637 21 233 3.2 9.7 0.00 0.00 0.00 57 1014.0
20260903030535 21 239 3.2 9.7 0.00 0.00 0.00 56 1014.0
20260903030527 21 266 3.2 9.7 0.00 0.00 0.00 56 1014.0